     2.10           OBSERVATION DATA    G (GPS)             RINEX VERSION / TYPE
teqc 2002Mar14 Lou Estey 20020315 16:12:22UTC               PGM / RUN BY / DATE
Solaris 2.7|Ultra 2|cc SC5.0|=+-|*Sparc                     COMMENT
BIT 2 OF LLI FLAGS DATA COLLECTED UNDER A/S CONDITION       COMMENT
HMCP                                                        MARKER NAME
GAL jpl                                                     OBSERVER / AGENCY
0 TURBOROGUE 95.03.08                                       REC # / TYPE / VERS
-Unknown- -Unknown-                                         ANT # / TYPE
 -2458536.3819 -4680369.7129  3556390.0765                  APPROX POSITION XYZ
        0.0000        0.0000        0.0000                  ANTENNA: DELTA H/E/N
     1     1                                                WAVELENGTH FACT L1/2
     5    L1    L2    C1    P2    P1                        # / TYPES OF OBSERV
SNR is mapped to RINEX snr flag value [1,4-9]               COMMENT
SNR: >=316 >=100 >=31.6 >=10 >=3.2 >0 bad=0                 COMMENT
L1 & L2: 9 8 7 6 5 4 1                                      COMMENT
  1996     3    15     0     0    0.0000000     GPS         TIME OF FIRST OBS
                                                            END OF HEADER
 96  3 15  0  0  0.0000000  0  8G 5G26G 2G12G 9G 7G 4G24
  -7345295.79349  -5723602.33445  23091598.4024   23091598.8754
        -0.68058        -1.25354  25452804.0184
   9655078.88548   7523435.48745  23434641.2044   23434641.8724
   4520458.593 8   3522435.205 8  22959724.873    22959722.720
 -20587816.00649 -16042444.69647  21066783.1424   21066782.8054
 -16430328.78849 -12802833.25746  21964362.7084   21964363.0264
 -17686908.17449 -13781996.61147  20583495.5454   20583494.9284
 -15229513.78149 -11867144.81046  21469199.0684   21469199.9304
 96  3 15  0  0 30.0000000  0  8G 5G26G 2G12G 9G 7G 4G24
  -7427300.24649  -5787501.88045  23075993.2834   23075993.5504
     69041.15648                  25465941.2894
   9730357.62048   7582094.18945  23448965.8514   23448968.2654
   4608433.015 8   3590986.663 8  22976465.868    22976463.598
 -20594538.95549 -16047683.35947  21065503.4674   21065503.4134
 -16367569.54549 -12753929.95746  21976305.6944   21976305.6774
 -17690554.51449 -13784837.90347  20582801.7654   20582801.1294
 -15304211.52049 -11925350.81546  21454984.5314   21454985.2574
 96  3 15  0  1  0.0000000  0  8G 5G26G 2G12G 9G 7G 4G24
  -7509263.14649  -5851369.04345  23060396.2714   23060396.2564
    137986.04948                  25479060.7124
   9805870.63648   7640935.46645  23463336.2254   23463337.4324
   4696708.828 8   3659772.971 8  22993264.125    22993262.154
 -20600664.88149 -16052456.81247  21064337.9194   21064337.4434
 -16304746.39349 -12704976.84946  21988260.3254   21988260.5754
 -17693582.38149 -13787197.26747  20582225.2904   20582224.9344
 -15378468.77049 -11983213.58146  21440853.6974   21440854.8584
 96  3 15  0  1 30.0000000  0  7G 5G 2G12G 9G 7G 4G24
  -7591173.60349  -5915195.33045  23044809.7324   23044810.2104
   9881623.47948   7699963.63445  23477751.5664   23477753.9194
   4785288.162 8   3728795.796 8  23010120.328    23010118.387
 -20606185.90949 -16056758.92147  21063287.2574   21063286.7534
 -16241834.98449 -12655954.98746  22000231.7554   22000232.3204
 -17695986.48249 -13789070.58147  20581768.1114   20581767.5954
 -15452278.53949 -12040727.65946  21426808.3814   21426809.4494
 96  3 15  0  2  0.0000000  0  7G 5G 2G12G 9G 7G 4G24
  -7673036.16349  -5978984.30945  23029232.1024   23029231.8564
   9957619.80248   7759181.50345  23492212.7294   23492215.0454
   4874155.221 8   3798042.821 8  23027031.272    23027029.280
 -20611136.80849 -16060616.76747  21062344.8484   21062344.4274
 -16178841.97849 -12606869.53546  22012218.6544   22012219.1984
 -17697784.77349 -13790471.83447  20581425.8954   20581425.3174
 -15525658.38249 -12097906.73246  21412844.6504   21412845.6794
 96  3 15  0  2 30.0000000  0  7G 5G 2G12G 9G 7G 4G24
  -7754821.43249  -6042713.06345  23013668.8264   23013668.3024
  10033905.87148   7818625.15145  23506730.1314   23506730.8794
   4963337.421 8   3867535.411 8  23044002.109    23043999.857
 -20615503.94849 -16064019.74047  21061514.3234   21061513.8774
 -16115731.05049 -12557692.20346  22024228.7274   22024228.8614
 -17698962.52649 -13791389.55247  20581201.8584   20581201.1884
 -15598576.25649 -12154725.82646  21398968.6704   21398969.4064
 96  3 15  0  3  0.0000000  0  7G 5G 2G12G 9G 7G 4G24
  -7836539.91049  -6106389.78745  22998118.2914   22998118.3014
  10110485.49148   7878297.55345  23521303.4044   23521304.5524
   5052830.202 8   3937270.004 8  23061032.071    23061029.909
 -20619289.26649 -16066969.34247  21060793.9804   21060793.7974
 -16052500.46549 -12508421.61746  22036261.4324   22036261.1864
 -17699545.35649 -13791843.69447  20581090.7074   20581090.1874
 -15671044.67449 -12211194.69946  21385178.4394   21385179.1724
 96  3 15  0  3 30.0000000  0  7G 5G 2G12G 9G 7G 4G24
  -7918219.19749  -6170035.95946  22982574.6944   22982574.2714
  10187331.23248   7938177.30545  23535925.3544   23535927.0694
   5142602.566 8   4007222.458 8  23078115.086    23078113.279
 -20622514.09649 -16069482.20147  21060180.3244   21060179.8344
 -15989175.99449 -12459077.88046  22048311.5494   22048312.0754
 -17699564.58849 -13791858.66847  20581087.2064   20581086.6934
 -15743097.53649 -12267339.76546  21371467.1364   21371468.0464
 96  3 15  0  4  0.0000000  0  7G 5G 2G12G 9G 7G 4G24
  -7999852.39249  -6233646.21146  22967040.4684   22967041.3214
  10264448.14948   7998268.38745  23550600.5504   23550602.7524
   5232651.778 8   4077390.649 8  23095250.895    23095248.843
 -20625184.89449 -16071563.34847  21059671.9194   21059671.5624
 -15925783.73749 -12409681.32046  22060374.7134   22060374.0144
 -17699016.70549 -13791431.73947  20581191.4834   20581190.8584
 -15814741.06849 -12323165.87346  21357833.6574   21357834.5374
 96  3 15  0  4 30.0000000  0  7G 5G 2G12G 9G 7G 4G24
  -8081447.01749  -6297226.40246  22951513.3034   22951514.3604
  10341814.02248   8058553.44745  23565323.9034   23565325.1814
   5322970.688 8   4147768.984 8  23112438.101    23112435.926
 -20627292.51949 -16073205.65647  21059270.6794   21059270.3524
 -15862333.52049 -12360239.59846  22072448.9684   22072449.2644
 -17697897.43249 -13790559.56547  20581404.3594   20581403.7594
 -15885991.30449 -12378685.51946  21344275.1424   21344276.1374
 96  3 15  0  5  0.0000000  0  7G 5G 2G12G 9G 7G 4G24
  -8163008.60949  -6360780.86045  22935992.1784   22935992.6964
  10419407.01048   8119015.46545  23580088.3004   23580089.5894
   5413550.984 8   4218350.998 8  23129674.936    23129673.029
 -20628842.28649 -16074413.26947  21058975.8034   21058975.6294
 -15798824.72349 -12310752.22246  22084534.2314   22084534.1234
 -17696208.38549 -13789243.41647  20581725.7824   20581725.1954
 -15956864.57849 -12433911.42646  21330788.6164   21330789.2964
 96  3 15  0  5 30.0000000  0  7G 5G 2G12G 9G 7G 4G24
  -8244520.62249  -6424296.69146  22920481.8774   22920481.6624
  10497218.44548   8179647.72145  23594894.8894   23594896.3314
   5504394.283 8   4289137.952 8  23146962.050    23146960.082
 -20629841.76249 -16075192.08847  21058785.8104   21058785.3924
 -15735248.18149 -12261212.06946  22096632.3574   22096632.7904
 -17693924.39349 -13787463.67247  20582160.5404   20582159.9004
 -16027338.17149 -12488825.89947  21317377.9454   21317379.0394
 96  3 15  0  6  0.0000000  0  7G 5G 2G12G 9G 7G 4G24
  -8325986.76649  -6487776.78246  22904979.2004   22904979.9474
  10575253.07548   8240453.87544  23609744.4134   23609745.4844
   5595500.855 8   4360130.055 8  23164299.154    23164296.817
 -20630286.50649 -16075538.64647  21058701.0684   21058700.8914
 -15671601.34149 -12211617.13246  22108743.8964   22108744.2754
 -17691037.77649 -13785214.34647  20582709.8954   20582709.0504
 -16097399.14149 -12543418.83547  21304045.7664   21304046.5284
 96  3 15  0  6 30.0000000  0  7G 5G 2G12G 9G 7G 4G24
  -8407421.50349  -6551232.37646  22889483.0694   22889484.5014
  10653487.57948   8301415.77944  23624632.4724   23624632.9664
   5686861.271 8   4431319.959 8  23181684.406    23181682.036
 -20630174.92949 -16075451.70747  21058722.2194   21058721.6904
 -15607876.02949 -12161961.05646  22120870.5804   22120870.6094
 -17687567.55449 -13782510.26947  20583370.1134   20583369.5584
 -16167023.79549 -12597671.79147  21290796.7954   21290797.5214
 96  3 15  0  7  0.0000000  0  7G 5G 2G12G 9G 7G 4G24
  -8488803.41049  -6614646.81646  22873996.1294   22873996.4334
  10731951.44448   8362556.43644  23639563.5814   23639565.2544
   5778496.538 8   4502724.031 8  23199121.985    23199119.840
 -20629494.04849 -16074921.15247  21058852.0544   21058851.6464
 -15544055.31649 -12112230.63846  22133014.9814   22133014.8764
 -17683495.79849 -13779337.45947  20584144.8374   20584144.2184
 -16236168.68549 -12651550.90647  21277638.9754   21277639.5844
 96  3 15  0  7 30.0000000  0  7G 5G 2G12G 9G 7G 4G24
  -8570127.54649  -6678016.24046  22858521.0274   22858520.7684
  10810656.07348   8423884.65344  23654541.4524   23654543.1484
   5870404.900 8   4574340.909 8  23216611.585    23216609.519
 -20628245.85749 -16073948.53347  21059089.5774   21059089.4274
 -15480154.35249 -12062437.69046  22145174.5724   22145174.5944
 -17678829.85549 -13775701.65147  20585032.8704   20585032.3174
 -16304832.58649 -12705055.21947  21264572.5484   21264573.1944
 96  3 15  0  8  0.0000000  0  7G 5G 2G12G 9G 7G 4G24
  -8651393.69749  -6741340.49146  22843056.2784   22843055.7284
  10889604.20248   8485402.63144  23669564.2454   23669565.5014
   5962584.201 8   4646168.906 8  23234152.728    23234150.561
 -20626425.02849 -16072529.70947  21059435.8994   21059435.7474
 -15416173.91749 -12012582.81446  22157350.1634   22157350.5204
 -17673587.52149 -13771616.70747  20586030.0884   20586029.5354
 -16373036.32649 -12758200.96747  21251593.8264   21251594.6154
 96  3 15  0  8 30.0000000  0  7G 5G 2G12G 9G 7G 4G24
  -8732608.90949  -6804625.02946  22827601.0024   22827601.8484
  10968784.09148   8547101.21344  23684630.8264   23684630.7094
   6055029.319 8   4718204.034 8  23251744.506    23251742.377
 -20624041.73749 -16070672.60247  21059889.3654   21059889.2524
 -15352116.33949 -11962667.81846  22169540.1374   22169540.4684
 -17667770.92949 -13767084.28847  20587137.1784   20587136.7174
 -16440796.00349 -12811000.69047  21238699.3064   21238699.9214
 96  3 15  0  9  0.0000000  0  7G 5G 2G12G 9G 7G 4G24
  -8813762.96549  -6867861.92846  22812157.9714   22812158.6084
  11048208.87148   8608990.63044  23699745.9434   23699747.6734
   6147741.571 8   4790447.312 8  23269387.000    23269385.055
 -20621104.07649 -16068383.51947  21060448.3424   21060448.1094
 -15287986.69749 -11912696.67846  22181743.6704   22181744.0954
 -17661368.09749 -13762095.06047  20588355.9004   20588354.9464
 -16508145.15249 -12863480.51847  21225883.1744   21225883.9034
 96  3 15  0  9 30.0000000  0  7G 5G 2G12G 9G 7G 4G24
  -8894845.63849  -6931043.18846  22796728.4384   22796728.7834
  11127876.16648   8671068.97544  23714905.6684   23714909.5474
   6240726.454 8   4862903.031 8  23287081.318    23287079.548
 -20617596.00949 -16065649.96547  21061115.9714   21061115.5354
 -15223776.97349 -11862663.12946  22193961.7844   22193962.1064
 -17654374.44349 -13756645.44947  20589686.4724   20589685.9404
 -16575083.56749 -12915640.29547  21213145.4104   21213146.0714
 96  3 15  0 10  0.0000000  0  7G 5G 2G12G 9G 7G 4G24
  -8975837.90649  -6994154.01246  22781316.3894   22781315.9704
  11207785.45148   8733335.94944  23730111.0444   23730114.5414
   6333996.990 8   4935581.337 8  23304830.381    23304828.344
 -20613487.68149 -16062448.67447  21061898.0164   21061897.6464
 -15159463.93449 -11812549.08346  22206200.3564   22206200.5064
 -17646768.08849 -13750718.40647  20591133.9454   20591133.3334
 -16641576.81549 -12967453.18547  21200491.7394   21200492.3764
 96  3 15  0 10 30.0000000  0  7G 5G 2G12G 9G 7G 4G24
  -9056753.90649  -7057205.42746  22765919.0614   22765917.8704
  11287921.83848   8795779.83644  23745361.9394
   6427537.425 8   5008469.948 8  23322630.740    23322628.570
 -20608792.62349 -16058790.19347  21062791.3174   21062790.7804
 -15095078.57849 -11762378.68646  22218452.1444   22218452.7394
 -17638556.57449 -13744319.81647  20592696.5024   20592695.9364
 -16707620.45849 -13018915.73547  21187924.4934   21187924.9694
 96  3 15  0 11  0.0000000  0  7G 5G 2G12G 9G 7G 4G24
  -9137573.69249  -7120181.84346  22750539.9264   22750539.5714
  11368298.09848   8858410.58944  23760657.1394
   6521353.036 8   5081572.980 8  23340483.292    23340481.038
 -20603501.61349 -16054667.33347  21063797.8904   21063797.9834
 -15030619.13549 -11712150.55346  22230718.0394   22230719.1824
 -17629738.80249 -13737448.81647  20594374.6964   20594373.8874
 -16773194.82149 -13070012.61947  21175446.1784   21175446.8564
 96  3 15  0 11 30.0000000  0  7G 5G 2G12G 9G 7G 4G24
  -9218287.19249  -7183075.45346  22735180.1754   22735180.4814
  11448921.41348   8921233.95144  23775999.0354
   6615451.556 8   5154896.457 8  23358389.820    23358387.444
 -20597602.31549 -16050070.48547  21064920.8774   21064920.4934
 -14966068.65649 -11661851.48146  22243002.1594   22243002.7644
 -17620310.66049 -13730102.20247  20596168.4454   20596167.9434
 -16838260.90649 -13120713.43747  21163064.5134   21163065.0914
 96  3 15  0 12  0.0000000  0  7G 5G 2G12G 9G 7G 4G24
  -9298911.43249  -7245899.50646  22719837.5204   22719837.5364
  11529789.18148                  23791388.2894
   6709815.732 8   5228426.941 8  23376346.625    23376344.425
 -20591124.49949 -16045022.84347  21066153.5304   21066153.1714
 -14901445.82349 -11611496.03246  22255299.6354   22255299.9574
 -17610284.43549 -13722289.55047  20598076.5814   20598075.8844
 -16902825.46949 -13171023.46047  21150778.2294   21150778.8184
 96  3 15  0 12 30.0000000  0  7G 5G 2G12G 9G 7G 4G24
  -9379458.13749  -7308663.15346  22704510.0774   22704509.6124
  11610909.39848   9047458.27844  23806824.1154
   6804430.185 8   5302152.454 8  23394351.060    23394348.897
 -20584107.84449 -16039555.32647  21067488.8884   21067488.5324
 -14836763.18549 -11561093.98946  22267608.0504   22267608.6304
 -17599679.84049 -13714026.22347  20600094.5264   20600093.9294
 -16966918.66749 -13220966.18847  21138581.6224   21138582.1584
 96  3 15  0 13  0.0000000  0  7G 5G 2G12G 9G 7G 4G24
  -9459941.57049  -7371377.49446  22689193.8894   22689193.8714
  11692270.97947                  23822305.5804
   6899279.530 8   5376061.000 8  23412400.407    23412398.187
 -20576575.12149 -16033685.67447  21068922.1384   21068921.9634
 -14772022.27149 -11510646.53646  22279927.8394   22279927.7204
 -17588523.69849 -13705333.11547  20602217.4704   20602216.7904
 -17030558.77849 -13270555.85647  21126471.2894   21126471.9054
 96  3 15  0 13 30.0000000  0  7G 5G 2G12G 9G 7G 4G24
  -9540361.43649  -7434042.29946  22673890.8384   22673891.6774
  11773869.02247                  23837835.2574
   6994368.451 8   5450156.222 8  23430495.315    23430493.043
 -20568513.29149 -16027403.73447  21070456.3964   21070456.0634
 -14707221.04949 -11460152.08146  22292259.0694   22292259.4664
 -17576802.42249 -13696199.64747  20604447.7464   20604447.2034
 -17093738.00649 -13319786.39947  21114448.2574   21114449.1764
 96  3 15  0 14  0.0000000  0  7G 5G 2G12G 9G 7G 4G24
  -9620738.72049  -7496673.92146  22658595.5494   22658595.5584
  11855672.45847                  23853401.4404
   7089666.371 8   5524414.299 8  23448629.937    23448627.295
 -20559948.54049 -16020729.90647  21072085.9894   21072085.5664
 -14642397.40949 -11409640.16546  22304595.2884   22304595.8774
 -17564541.37649 -13686645.57747  20606781.1444   20606780.3844
 -17156508.00249 -13368698.05747  21102503.9884   21102504.4284
 96  3 15  0 14 30.0000000  0  7G 5G 2G12G 9G 7G 4G24
  -9701101.86649  -7559294.53246  22643302.8284   22643302.4384
  11937634.88647                  23868998.2774
   7185143.006 8   5598811.638 8  23466798.418    23466796.189
 -20550894.06849 -16013674.48347  21073809.0124   21073808.7414
 -14577578.11949 -11359131.64046  22316929.9814   22316930.1274
 -17551773.76649 -13676696.78547  20609210.7814   20609210.1074
 -17218912.95949 -13417325.27047  21090628.6794   21090629.3364
 96  3 15  0 15  0.0000000  0  7G 5G 2G12G 9G 7G 4G24
  -9781443.71849  -7621898.54846  22628014.1944   22628014.0434
  12019757.02847                  23884624.9524
   7280817.267 8   5673362.967 8  23485004.728    23485002.401
 -20541306.60549 -16006203.73347  21075633.4394   21075633.1094
 -14512755.74949 -11308620.70446  22329264.9964   22329265.0024
 -17538471.15949 -13666331.11147  20611742.0874   20611741.4454
 -17280928.18749 -13465648.79747  21078827.1154   21078827.9804
 96  3 15  0 15 30.0000000  0  8G 5G20G 2G12G 9G 7G 4G24
  -9861702.01849  -7684437.45846  22612741.7234   22612741.7344
        -0.32058                  25211059.7994
  12102086.92547                  23900293.0984
   7376740.196 8   5748108.053 8  23503258.325    23503256.067
 -20531123.35649 -15998268.74147  21077571.1374   21077571.2334
 -14447881.73149 -11258069.53746  22341610.2074   22341610.8784
 -17524569.14849 -13655498.37147  20614387.7424   20614387.1054
 -17342506.51749 -13513631.88447  21067109.4254   21067110.3554
 96  3 15  0 16  0.0000000  0  7G 5G20G12G 9G 7G 4G24
  -9941866.22549  -7746903.05146  22597486.8844   22597487.4724
    -95818.64948    -74663.21744  25192824.7614
   7472912.312 8   5823047.328 8  23521559.164    23521557.143
 -20520347.24049 -15989871.77447  21079622.3024   21079621.9084
 -14382943.36849 -11207468.21346  22353967.3794   22353968.1704
 -17510070.89049 -13644201.02047  20617146.3214   20617145.7184
 -17403647.87449 -13561274.47847  21055474.3554   21055475.1874
 96  3 15  0 16 30.0000000  0  7G 5G20G12G 9G 7G 4G24
 -10021927.48649  -7809288.42146  22582251.7544   22582251.7024
   -191694.31847                  25174577.4394
   7569345.536 8   5898190.063 8  23539909.905    23539907.548
 -20508966.39149 -15981003.58447  21081787.6864   21081787.5294
 -14317921.64949 -11156801.95346  22366340.7044   22366341.5454
 -17494965.28249 -13632430.41347  20620020.9194   20620020.3714
 -17464310.26249 -13608543.84447  21043930.9954   21043931.5934
 96  3 15  0 17  0.0000000  0  6G 5G12G 9G 7G 4G24
 -10101845.23149  -7871561.96846  22567043.9714   22567043.9114
   7666071.994 8   5973561.278 8  23558316.482    23558314.317
 -20496956.58849 -15971645.30347  21084073.0264   21084072.6004
 -14252782.45949 -11106044.15846  22378736.1324   22378736.6844
 -17479216.40949 -13620158.55547  20623017.7484   20623016.9224
 -17524435.23249 -13655394.44947  21032489.1414   21032489.8924
 96  3 15  0 17 30.0000000  0  6G 5G12G 9G 7G 4G24
 -10181608.23449  -7933714.94046  22551865.8164   22551865.5764
   7763081.565 8   6049153.110 8  23576776.638    23576774.677
 -20484340.41149 -15961814.52147  21086473.7244   21086473.3954
 -14187522.45849 -11055192.22446  22391155.0834   22391155.3004
 -17462831.54049 -13607391.11847  20626135.7914   20626135.0754
 -17584016.94349 -13701821.73247  21021151.2554   21021151.8954
 96  3 15  0 18  0.0000000  0  7G 5G20G12G 9G 7G 4G24
 -10261217.28449  -7995747.93946  22536716.8664   22536716.8204
        -0.24158                  25119840.5694
   7860382.861 8   6124972.259 8  23595292.588    23595290.478
 -20471110.41949 -15951505.44647  21088991.3254   21088990.9664
 -14122120.74449 -11004229.85646  22403600.6704   22403600.7884
 -17445802.73449 -13594121.90847  20629376.2244   20629375.6464
 -17643033.21149 -13747808.41447  21009920.8244   21009921.5664
 96  3 15  0 18 30.0000000  0  7G 5G20G12G 9G 7G 4G24
 -10340710.75849  -8057690.87746  22521589.9054   22521589.5344
    -95917.56948    -74741.04244  25101590.7334
   7957944.023 8   6200993.903 8  23613857.970    23613855.852
 -20457304.13449 -15940747.30647  21091618.8234   21091618.4814
 -14056618.05849 -10953188.80546  22416064.8904   22416066.3364
 -17428170.71649 -13580382.66747  20632731.6394   20632730.7784
 -17701511.85749 -13793376.17347  20998792.6274   20998793.1384
 96  3 15  0 19  0.0000000  0  7G 9G 5G20G12G 7G 4G24
 -20442947.17549 -15929560.07547  21094350.7734   21094350.5954
 -10420131.56949  -8119577.20846  22506476.4644   22506475.8744
   -191887.79048                  25083328.0654
   8055727.939 8   6277189.115 8  23632465.723    23632463.413
 -13991045.75049 -10902093.52546  22428543.3974   22428543.7784
 -17409977.60049 -13566206.20747  20636193.4414   20636192.5754
 -17759505.49849 -13838566.00147  20987756.9824   20987757.2974
 96  3 15  0 19 30.0000000  0  7G 9G 5G20G12G 7G 4G24
 -20428032.76349 -15917938.45747  21097189.0984   21097188.7914
 -10499487.83549  -8181413.24346  22491374.6994   22491374.1544
   -287923.88647   -224356.20444  25065047.4004
   8153725.050 8   6353550.452 8  23651113.960    23651111.613
 -13925410.05049 -10850948.82946  22441033.4964   22441033.2954
 -17391233.63749 -13551600.51347  20639760.4434   20639759.7544
 -17817041.75649 -13883399.43447  20976808.1904   20976808.5514
 96  3 15  0 20  0.0000000  0  7G 9G 5G20G12G 7G 4G24
 -20412552.01149 -15905875.54247  21100134.9134   21100134.6354
 -10578795.03049  -8243211.03346  22476283.3604   22476283.4734
   -384029.32348   -299243.48144  25046760.5304   25046762.0434
   8251928.760 8   6430072.773 8  23669801.520    23669799.066
 -13859739.38149 -10799776.88546  22453529.8764   22453529.6004
 -17371965.78249 -13536586.59447  20643427.1184   20643426.1894
 -17874135.56649 -13927888.09747  20965943.5714   20965943.8944
 96  3 15  0 20 30.0000000  0  7G 9G 5G20G12G 7G 4G24
 -20396504.35349 -15893370.87747  21103188.2444   21103188.0924
 -10658047.85049  -8304966.45546  22461201.9754   22461202.4964
   -480194.87248                  25028462.9484
   8350343.084 8   6506759.220 8  23688529.101    23688526.851
 -13794051.85049 -10748591.80345  22466029.2674   22466029.5024
 -17352176.70349 -13521166.52747  20647192.7094   20647191.8814
 -17930780.32049 -13972026.84547  20955164.4114   20955164.8274
 96  3 15  0 21  0.0000000  0  7G 9G 5G20G12G 7G 4G24
 -20379863.45249 -15880403.94647  21106354.9354   21106354.7834
 -10737211.54849  -8366652.43146  22446137.6344   22446138.0604
   -576408.50748                  25010157.6184
   8448982.581 8   6583621.126 8  23707299.460    23707297.334
 -13728329.38349 -10697379.50146  22478536.7304   22478537.1204
 -17331831.03649 -13505312.75447  20651064.3554   20651063.7304
 -17986957.40649 -14015801.18047  20944474.1364   20944474.8624
 96  3 15  0 21 30.0000000  0  7G 9G 5G20G12G 7G 4G24
 -20362689.26349 -15867021.46747  21109623.0164   21109622.6784
 -10816303.85149  -8428282.77346  22431087.0364   22431087.2834
   -672710.65348   -524189.95744  24991833.7474
   8547810.044 8   6660629.499 8  23726105.890    23726103.653
 -13662626.86849 -10646182.74146  22491039.2104   22491039.2324
 -17310953.35349 -13489044.42247  20655037.3664   20655036.4534
 -18042691.77949 -14059230.54247  20933868.3144   20933868.7344
 96  3 15  0 22  0.0000000  0  7G 9G 5G20G12G 7G 4G24
 -20344971.45349 -15853215.38447  21112995.3174   21112994.9124
 -10895279.53149  -8489822.24846  22416058.5014   22416058.5354
   -769053.37748   -599262.07544  24973493.7984   24973491.1394
   8646860.838 8   6737811.886 8  23744954.599    23744952.283
 -13596909.70449 -10594974.57646  22503545.0224   22503545.4804
 -17289507.11849 -13472333.06547  20659118.3234   20659117.7754
 -18097920.24549 -14102265.69147  20923358.6174   20923359.2544
 96  3 15  0 22 30.0000000  0  7G 9G 5G20G12G 7G 4G24
 -20326695.64349 -15838974.49947  21116472.8454   21116472.5484
 -10974099.79349  -8551240.61046  22401059.6444   22401059.2664
   -865412.53348   -674347.03644  24955158.7234   24955158.5964
   8746156.036 8   6815184.712 8  23763849.925    23763847.618
 -13531117.15249 -10543707.66646  22516064.5614   22516065.1514
 -17267454.69249 -13455149.34847  20663314.6104   20663313.7654
 -18152616.85449 -14144886.40547  20912950.4484   20912950.9234
 96  3 15  0 23  0.0000000  0  7G 9G 5G20G12G 7G 4G24
 -20307877.01149 -15824310.63647  21120053.9284   21120053.5584
 -11052764.96549  -8612538.12146  22386089.9784   22386089.3664
   -961801.20948   -749455.06844  24936818.3644   24936818.6824
   8845684.457 8   6892739.281 8  23782789.672    23782787.397
 -13465239.80049 -10492374.67346  22528600.4154   22528601.0594
 -17244803.37649 -13437498.96847  20667624.9484   20667624.4444
 -18206792.60949 -14187101.26047  20902640.7034   20902641.2464
 96  3 15  0 23 30.0000000  0  7G 9G 5G20G12G 7G 4G24
 -20288542.78249 -15809245.00647  21123733.1194   21123732.7334
 -11131310.21549  -8673742.20146  22371143.3394   22371142.7654
  -1058227.74448                  24918469.1144
   8945422.358 8   6970457.084 8  23801769.404    23801766.924
 -13399292.31249 -10440987.02446  22541149.6804   22541150.0804
 -17221593.10149 -13419413.03347  20672041.7604   20672041.0114
 -18260475.61949 -14228932.15547  20892425.2594   20892425.7764
 96  3 15  0 24  0.0000000  0  7G 9G 5G20G12G 7G 4G24
 -20268652.70349 -15793746.24147  21127517.8814   21127517.5454
 -11209724.54749  -8734844.26146  22356221.1064   22356220.7324
  -1154667.44648   -899740.37944  24900116.1474
   9045391.728 8   7048355.248 8  23820792.983    23820790.570
 -13333228.42849 -10389508.69346  22553721.5944   22553722.0904
 -17197816.50049 -13400885.80547  20676566.5674   20676565.7714
 -18313651.40949 -14270367.81847  20882306.2924   20882306.9994
 96  3 15  0 24 30.0000000  0  7G 9G 5G20G12G 7G 4G24
 -20248196.67449 -15777806.48547  21131410.5584   21131410.0364
 -11288024.89549  -8795857.49946  22341321.1904   22341321.1434
  -1251147.71348   -974919.71545  24881756.4444   24881755.3524
   9145584.950 8   7126427.845 8  23839859.098    23839856.706
 -13267056.62949 -10337946.25446  22566313.9194   22566313.4804
 -17173474.26249 -13381917.82047  20681198.4274   20681197.4864
 -18366352.38149 -14311433.49047  20872277.4724   20872278.0984
 96  3 15  0 25  0.0000000  0  7G 9G 5G20G12G 7G 4G24
 -20227234.03549 -15761471.96247  21135399.9404   21135399.4304
 -11366287.20549  -8856841.09746  22326428.2094   22326428.3884
  -1347734.77948  -1050182.31544  24863375.6414   24863377.2694
   9245938.714 8   7204625.532 8  23858955.858    23858953.321
 -13200867.22849 -10286370.10745  22578909.1614   22578910.2524
 -17148624.64349 -13362554.47747  20685927.4914   20685926.6344
 -18418628.32749 -14352167.97547  20862329.9124   20862330.3914
 96  3 15  0 25 30.0000000  0  7G 9G 5G20G12G 7G 4G24
 -20205759.30649 -15744738.41347  21139486.2524   21139485.8464
 -11444502.86949  -8917788.34346  22311544.4494   22311544.2264
  -1444431.04648  -1125529.97144  24844974.4814   24844976.9754
   9346450.539 8   7282946.389 8  23878082.568    23878080.146
 -13134676.37049 -10234792.83445  22591504.3744   22591504.4144
 -17123273.96649 -13342800.69547  20690751.1674   20690750.4354
 -18470466.07049 -14392561.00247  20852465.2864   20852465.9124
 96  3 15  0 26  0.0000000  0  7G 9G 5G20G12G 7G 4G24
 -20183723.06549 -15727567.31947  21143679.0894   21143678.7344
 -11522608.12549  -8978649.56546  22296681.2544   22296681.0214
  -1541189.02848  -1200925.77744  24826562.0804   24826560.1744
   9447172.099 8   7361430.674 8  23897249.532    23897247.035
 -13068445.64749 -10183184.49646  22604108.4794   22604108.7964
 -17097360.14849 -13322608.10347  20695682.4504   20695681.6074
 -18521799.87449 -14432561.34847  20842696.9614   20842697.4834
 96  3 15  0 26 30.0000000  0  7G 9G 5G20G12G 7G 4G24
 -20161137.45549 -15709968.15147  21147977.4114   21147977.0804
 -11600602.86849  -9039424.67446  22281839.2174   22281839.3104
  -1638011.18648  -1276371.69944  24808135.6194   24808133.0384
   9548090.371 8   7440068.239 8  23916453.581    23916451.375
 -13002207.04849 -10131570.01746  22616713.0734   22616712.5734
 -17070886.90049 -13301979.59547  20700720.0524   20700719.4314
 -18572628.16249 -14472167.78747  20833024.7924   20833025.1454
 96  3 15  0 27  0.0000000  0  7G 9G 5G20G12G 7G 4G24
 -20137999.55249 -15691938.62347  21152380.6204   21152380.0924
 -11678462.23649  -9100094.29046  22267023.4344   22267023.1014
  -1734866.93648  -1351843.69544  24789703.0794   24789704.6834
   9649206.600 8   7518860.054 8  23935695.401    23935693.072
 -12935955.24049 -10079945.24245  22629320.3764   22629320.5784
 -17043867.00449 -13280925.12447  20705861.8034   20705860.9804
 -18622925.38849 -14511360.41447  20823453.4604   20823453.7044
 96  3 15  0 27 30.0000000  0  7G 9G 5G20G12G 7G 4G24
 -20114280.64549 -15673456.36647  21156893.4864   21156893.4384
 -11756146.80349  -9160627.70246  22252240.6774   22252240.6324
  -1831715.06948  -1427309.66144  24771276.1964   24771276.0704
   9750545.185 8   7597825.138 8  23954979.243    23954977.084
 -12869652.72049 -10028280.96345  22641937.2464   22641937.0654
 -17016268.85249 -13259420.06747  20711113.6814   20711112.6374
 -18672681.34549 -14550131.27047  20813985.3454   20813985.7334
 96  3 15  0 28  0.0000000  0  7G 9G 5G20G12G 7G 4G24
 -20089990.33449 -15654528.86047  21161516.2714   21161515.7384
 -11833687.57649  -9221049.05246  22237484.9134   22237484.5244
  -1928573.01148  -1502783.39944  24752843.2324   24752846.1774
   9852084.649 8   7676946.744 8  23974301.561    23974299.343
 -12803301.80049  -9976578.95445  22654563.2534   22654563.1614
 -16988095.89349 -13237467.10947  20716475.0354   20716473.9634
 -18721927.91249 -14588505.20147  20804613.8134   20804614.2324
 96  3 15  0 28 30.0000000  0  7G 5G20G12G 9G 7G 4G24
 -11911095.56549  -9281366.94146  22222755.0714   22222754.3924
  -2025464.94448  -1578283.55944  24734403.3624   24734409.1984
   9953811.094 8   7756214.050 8  23993659.439    23993657.367
 -20065137.22149 -15635162.80547  21166245.7684   21166245.4714
 -12736896.05849  -9924834.24645  22667199.4654   22667199.8644
 -16959360.96949 -13215076.26047  20721942.8144   20721942.0364
 -18770673.39749 -14626488.68347  20795337.9304   20795338.1764
 96  3 15  0 29  0.0000000  0  7G 5G20G12G 9G 7G 4G24
 -11988364.88149  -9341576.78046  22208050.9144   22208050.6134
  -2122374.81048  -1653797.74444  24715961.5274   24715964.7024
  10055734.725 8   7835635.010 8  24013055.059    24013052.881
 -20039715.98249 -15615354.05847  21171083.0484   21171082.6894
 -12670409.17949  -9873026.30146  22679851.7884   22679852.0194
 -16930047.24849 -13192234.39647  20727520.9634   20727519.9804
 -18818907.41649 -14664073.61447  20786159.2134   20786159.5694
 96  3 15  0 29 30.0000000  0  7G 5G20G12G 9G 7G 4G24
 -12065518.74449  -9401696.65946  22193368.6774   22193368.9994
  -2219321.34948  -1729340.43144  24697513.1224
  10157853.824 8   7915208.278 8  24032487.986    24032485.497
 -20013742.09449 -15595114.67347  21176025.3504   21176024.9144
 -12603844.33249  -9821157.61046  22692518.9234   22692518.3454
 -16900145.17149 -13168934.07647  20733211.2354   20733210.3454
 -18866642.97249 -14701270.13347  20777075.1844   20777075.6664
 96  3 15  0 30  0.0000000  0  7G 5G20G12G 9G 7G 4G24
 -12142556.18049  -9461725.81846  22178708.8544   22178709.0014
  -2316319.92248  -1804923.72544  24679054.4244
  10260162.289 8   7994929.106 8  24051956.726    24051954.114
 -19987241.27549 -15574464.69147  21181068.6354   21181068.1094
 -12537209.89449  -9769234.69245  22705198.7114   22705199.2294
 -16869686.39049 -13145199.95247  20739007.2434   20739006.3214
 -18913880.28249 -14738078.40747  20768086.2524   20768086.6074
 96  3 15  0 30 30.0000000  0  7G 5G20G12G 9G 7G 4G24
 -12219448.09849  -9521641.57946  22164076.8954   22164076.7864
  -2413336.48348  -1880521.02244  24660591.7214
  10362684.176 8   8074816.233 8  24071466.249    24071463.257
 -19960203.66849 -15553396.43247  21186213.9534   21186213.5014
 -12470489.34449  -9717244.66645  22717895.8704   22717896.3024
 -16838664.61949 -13121027.14147  20744910.7414   20744909.8214
 -18960598.37849 -14774482.09847  20759196.0474   20759196.5874
 96  3 15  0 31  0.0000000  0  7G 5G20G12G 9G 7G 4G24
 -12296179.36249  -9581432.15246  22149475.5694   22149475.5614
  -2510336.29248  -1956105.17744  24642134.9544   24642136.7814
  10465434.044 8   8154880.999 8  24091018.607    24091016.115
 -19932610.44449 -15531895.22747  21191464.5064   21191464.2354
 -12403678.25449  -9665184.09845  22730609.5794   22730608.8074
 -16807069.79349 -13096407.79047  20750922.8514   20750921.9664
 -19006783.29749 -14810470.32447  20750407.2294   20750407.7624
 96  3 15  0 31 30.0000000  0  7G 5G20G12G 9G 7G 4G24
 -12372770.32449  -9641113.40446  22134900.3854   22134900.2724
  -2607366.28848  -2031712.87544  24623670.2284   24623670.7084
  10568371.260 8   8235091.754 8  24110607.041    24110604.485
 -19904493.20049 -15509985.69547  21196815.2034   21196814.7314
 -12336817.99949  -9613085.19146  22743332.7064   22743333.2324
 -16774954.60249 -13071382.96047  20757034.1684   20757033.6234
 -19052479.15049 -14846077.46347  20741711.7084   20741712.1734
 96  3 15  0 32  0.0000000  0  7G 5G20G12G 9G 7G 4G24
 -12449238.07049  -9700698.65046  22120349.0444   22120349.1024
  -2704440.53448  -2107355.10844  24605198.0294   24605195.0054
  10671455.753 8   8315417.274 8  24130223.199    24130221.066
 -19875872.28749 -15487683.69247  21202261.4974   21202261.0524
 -12269940.00449  -9560972.49045  22756058.6754   22756059.4734
 -16742366.75249 -13045989.82447  20763235.3314   20763234.5814
 -19097710.41949 -14881322.58847  20733104.3864   20733104.8574
 96  3 15  0 32 30.0000000  0  7G 5G20G12G 9G 7G 4G24
 -12525563.31549  -9760172.85446  22105825.5624   22105825.4684
  -2801517.91548  -2182999.82744  24586726.1154   24586724.2994
  10774718.353 8   8395881.583 8  24149873.625    24149871.298
 -19846688.26749 -15464942.90747  21207814.9594   21207814.5184
 -12203018.03449  -9508825.52445  22768793.6954   22768794.6754
 -16709255.10949 -13020188.53847  20769536.2684   20769535.7134
 -19142427.07549 -14916166.71747  20724595.3284   20724595.8114
 96  3 15  0 33  0.0000000  0  7G 5G20G12G 9G 7G 4G24
 -12601748.51949  -9819537.93646  22091327.7174   22091327.6274
  -2898619.53248  -2258663.32244  24568248.4534   24568250.7494
  10878139.596 8   8476469.505 8  24169554.345    24169551.541
 -19816953.00249 -15441772.57747  21213473.1144   21213473.1094
 -12136079.04849  -9456665.30045  22781531.9044   22781532.3774
 -16675636.77649 -12993992.43047  20775933.6324   20775932.8584
 -19186631.89649 -14950612.01247  20716183.2794   20716183.8214
 96  3 15  0 33 30.0000000  0  7G 5G20G12G 9G 7G 4G24
 -12677791.39049  -9878792.10346  22076857.0744   22076856.9154
  -2995750.89848  -2334350.03444  24549765.3914   24549767.3934
  10981718.898 8   8557180.597 8  24189264.911    24189262.032
 -19786670.36749 -15418175.72547  21219236.2444   21219236.1114
 -12069130.23049  -9404497.40745  22794271.5544   22794271.3814
 -16641510.18549 -12967400.27547  20782427.8424   20782426.8814
 -19230322.60149 -14984656.70147  20707869.2704   20707869.6634
 96  3 15  0 34  0.0000000  0  7G 5G20G12G 9G 7G 4G24
 -12753707.26949  -9937947.31646  22062410.6174   22062410.7214
  -3092913.03348  -2410060.70944  24531277.9604   24531278.1384
  11085460.942 8   8638018.497 7  24209006.367    24209003.534
 -19755844.87949 -15394155.87047  21225101.9664   21225101.5424
 -12002176.26148  -9352325.49145  22807012.1914   22807012.7184
 -16606861.57649 -12940401.35447  20789021.2904   20789020.3664
 -19273480.28249 -15018286.04447  20699656.6374   20699657.0664
 96  3 15  0 34 30.0000000  0  7G 5G20G12G 9G 7G 4G24
 -12829498.54349  -9997005.43646  22047988.2964   22047987.8854
  -3190132.76548  -2485816.32444  24512777.3874   24512776.8504
  11189362.550 8   8718980.740 7  24228778.003    24228775.455
 -19724483.46949 -15369718.41047  21231069.6664   21231069.4174
 -11935223.53049  -9300154.55045  22819753.6904   22819753.3414
 -16571688.09449 -12912993.44147  20795714.3134   20795713.6904
 -19316111.48249 -15051505.14247  20691544.0344   20691544.4924
 96  3 15  0 35  0.0000000  0  7G 5G20G12G 9G 7G 4G24
 -12905136.83749 -10055944.35746  22033594.7284   22033594.4024
  -3287404.52448  -2561612.49544  24494265.6744   24494267.9484
  11293431.751 8   8800073.575 7  24248581.763    24248579.158
 -19692591.00749 -15344867.14347  21237138.5714   21237138.2784
 -11868253.92049  -9247970.45445  22832497.4724   22832497.5064
 -16535986.23749 -12885173.81247  20802508.2794   20802507.4124
 -19358220.92849 -15084317.68147  20683531.0994   20683531.5234
 96  3 15  0 35 30.0000000  0  7G 5G20G12G 9G 7G 4G24
 -12980619.82149 -10114762.25246  22019230.5864   22019230.6284
  -3384719.23548  -2637442.12444  24475747.0414   24475747.4084
  11397678.441 8   8881304.709 7  24268419.066    24268416.715
 -19660158.52849 -15319595.08647  21243310.4664   21243309.9724
 -11801236.09448  -9195748.80245  22845250.5004   22845251.4274
 -16499737.82849 -12856928.29647  20809406.3144   20809405.2354
 -19399797.91649 -15116715.31547  20675618.9824   20675619.4624
 96  3 15  0 36  0.0000000  0  7G 5G20G12G 9G 7G 4G24
 -13055932.00649 -10173447.06046  22004899.2374   22004899.2714
  -3482059.38848  -2713291.50444  24457223.4994   24457223.6734
  11502109.512 8   8962679.510 8  24288292.036    24288289.224
 -19627176.03449 -15293894.44747  21249586.8204   21249586.5194
 -11734143.36748  -9143468.77545  22858017.5444   22858017.2074
 -16462935.60349 -12828251.23647  20816409.2914   20816408.5224
 -19440834.00949 -15148691.47547  20667810.0794   20667810.4664
 96  3 15  0 36 30.0000000  0  7G 5G20G12G 9G 7G 4G24
 -13131058.81349 -10231987.42546  21990602.9594   21990603.0644
  -3579400.30548  -2789141.51144  24438699.0894   24438701.8114
  11606723.768 8   9044197.048 7  24308199.402    24308196.901
 -19593636.66449 -15267759.88247  21255969.2414   21255968.9124
 -11666967.56348  -9091123.98545  22870800.7584   22870799.6624
 -16425581.55349 -12799144.18447  20823517.6224   20823516.6514
 -19481333.92149 -15180249.83147  20660103.2064   20660103.6044
 96  3 15  0 37  0.0000000  0  7G 5G20G12G 9G 7G 4G24
 -13206020.79949 -10290399.35146  21976338.0264   21976338.4494
  -3676726.62948  -2864980.20844  24420177.7004
  11711507.377 8   9125846.549 7  24328139.195    24328136.726
 -19559561.49249 -15241207.80947  21262453.4214   21262453.2804
 -11599721.74249  -9038724.66845  22883597.7754   22883598.2174
 -16387691.13749 -12769619.18447  20830727.8954   20830727.1194
 -19521300.36249 -15211392.49547  20652497.8864   20652498.3174
 96  3 15  0 37 30.0000000  0  7G 5G20G12G 9G 7G 4G24
 -13280849.31149 -10348707.26746  21962099.3354   21962098.7694
  -3774042.74948  -2940810.95444  24401656.5924
  11816438.706 8   9207611.162 7  24348106.899    24348104.567
 -19524971.96949 -15214254.94447  21269035.4644   21269035.3134
 -11532431.08248  -8986290.40645  22896402.4304   22896402.9734
 -16349289.08549 -12739695.51147  20838035.6464   20838034.5624
 -19560744.90549 -15242128.48747  20644992.0044   20644992.3804
 96  3 15  0 38  0.0000000  0  7G 5G20G12G 9G 7G 4G24
 -13355560.43949 -10406923.71246  21947882.3444   21947881.8924
  -3871351.41348  -3016635.84844  24383140.0334   24383142.2734
  11921497.520 8   9289475.127 7  24368099.023    24368096.711
 -19489881.70849 -15186911.89247  21275712.8684   21275712.6334
 -11465131.58148  -8933849.26345  22909208.3384   22909209.5874
 -16310407.30849 -12709398.02447  20845434.6604   20845433.6364
 -19599700.70049 -15272483.63447  20637578.7034   20637579.1974
 96  3 15  0 38 30.0000000  0  7G 5G20G12G 9G 7G 4G24
 -13430129.33149 -10465029.32846  21933692.0904   21933691.7274
  -3968633.09348  -3092439.68744  24364627.8924   24364632.5774
  12026705.286 8   9371455.155 7  24388119.593    24388117.231
 -19454264.80149 -15159158.46647  21282490.8194   21282490.4494
 -11397804.03948  -8881386.26045  22922020.7884   22922021.6854
 -16271028.00649 -12678712.85847  20852928.0454   20852927.1064
 -19638139.41849 -15302435.86847  20630263.9304   20630264.3424
 96  3 15  0 39  0.0000000  0  7G 5G20G12G 9G 7G 4G24
 -13504521.28449 -10522997.07646  21919535.3764   21919535.2454
  -4065869.42148  -3168208.20344  24346125.5774   24346123.0404
  12132085.504 8   9453569.565 7  24408172.618    24408170.440
 -19418107.44549 -15130983.90947  21289371.4434   21289371.0754
 -11330421.04348  -8828880.04345  22934843.6454   22934843.9584
 -16231135.85249 -12647628.06147  20860519.3784   20860518.5564
 -19676046.07049 -15331973.50347  20623050.5414   20623051.0494
 96  3 15  0 39 30.0000000  0  7G 5G20G12G 9G 7G 4G24
 -13578779.43349 -10580860.55846  21905404.1434   21905403.9914
  -4163135.41148  -3243999.86044  24327617.1714   24327615.6494
  12237581.829 8   9535774.436 7  24428248.166    24428245.635
 -19381465.93949 -15102432.09147  21296344.1534   21296343.8034
 -11263031.32248  -8776368.59445  22947667.3354   22947667.3944
 -16190787.72249 -12616187.96247  20868197.4234   20868196.4884
 -19713479.99549 -15361142.77747  20615927.1294   20615927.5154
 96  3 15  0 40  0.0000000  0  7G 5G20G12G 9G 7G 4G24
 -13652894.90349 -10638612.85646  21891300.5024   21891300.4474
  -4260458.41148  -3319835.90644  24309098.2044   24309100.1594
  12343186.800 8   9618063.953 7  24448343.938    24448341.585
 -19344345.44549 -15073507.04047  21303407.9664   21303407.4124
 -11195630.13848  -8723848.21545  22960492.7344   22960493.9754
 -16149983.77049 -12584392.67547  20875962.0764   20875961.5874
 -19750444.78849 -15389946.49647  20608893.1924   20608893.5644
 96  3 15  0 40 30.0000000  0  7G 5G20G12G 9G 7G 4G24
 -13726864.17249 -10696251.23046  21877225.2604   21877224.7374
  -4357843.43648  -3395720.32444  24290566.1024   24290566.8804
  12448899.007 8   9700437.039 7  24468460.608    24468457.860
 -19306768.76149 -15044226.51447  21310558.5064   21310557.9454
 -11128208.04048  -8671311.52945  22973323.2994   22973323.9864
 -16108710.77649 -12552231.89947  20883816.0294   20883814.9914
 -19786925.73249 -15418373.18747  20601951.0714   20601951.3384
 96  3 15  0 41  0.0000000  0  7G 5G20G12G 9G 7G 4G24
 -13800667.93149 -10753760.63746  21863180.8334   21863180.3524
  -4455274.23048  -3471640.35544  24272025.9404   24272027.5784
  12554734.626 8   9782906.286 8  24488600.635    24488597.801
 -19268732.39849 -15014587.80247  21317796.2524   21317796.2604
 -11060760.42748  -8618754.94845  22986157.8844   22986157.6314
 -16066937.04649 -12519680.93947  20891765.4424   20891764.5504
 -19822909.59349 -15446412.54547  20595103.5134   20595103.7354
 96  3 15  0 41 30.0000000  0  7G 5G20G12G 9G 7G 4G24
 -13874303.57349 -10811139.04446  21849168.0754   21849167.9004
  -4552734.75948  -3547583.55944  24253479.9494   24253478.1684
  12660704.990 8   9865480.529 8  24508766.145    24508763.183
 -19230210.59149 -14984570.82347  21325126.5884   21325126.4894
 -10993289.97548  -8566180.58745  22998997.4514   22998998.3314
 -16024636.37049 -12486719.37247  20899814.7064   20899814.0594
 -19858362.37649 -15474038.07647  20588357.1384   20588357.4484
 96  3 15  0 42  0.0000000  0  7G 5G20G12G 9G 7G 4G24
 -13947756.72949 -10868375.25646  21835190.5484   21835190.4724
  -4650195.20748  -3623526.73244  24234934.3284   24234933.3764
  12766823.627 8   9948170.315 8  24528959.908    24528957.142
 -19191181.24449 -14954158.35647  21332554.0784   21332553.6594
 -10925789.51548  -8513582.85845  23011842.5574   23011842.0294
 -15981790.13049 -12453332.68847  20907968.2904   20907967.4224
 -19893274.15049 -15501242.04147  20581713.4814   20581713.8184
 96  3 15  0 42 30.0000000  0  7G 5G20G12G 9G 7G 4G24
 -14021024.07349 -10925466.67046  21821247.8434   21821248.1394
  -4747633.17148  -3699452.37244  24216391.7874   24216391.4074
  12873097.077 8  10030980.727 8  24549183.150    24549180.167
 -19151634.74449 -14923342.91247  21340079.3134   21340078.9544
 -10858274.02148  -8460973.38545  23024690.0624   23024689.5074
 -15938396.62549 -12419519.56747  20916225.8634   20916225.0094
 -19927642.14149 -15528022.28147  20575173.5014   20575173.8134
 96  3 15  0 43  0.0000000  0  7G 5G20G12G 9G 7G 4G24
 -14094089.79449 -10982400.97046  21807344.2534   21807344.2854
  -4845031.84448  -3775347.39244  24197856.6784   24197859.7864
  12979535.968 8  10113920.065 8  24569437.885    24569434.840
 -19111534.34649 -14892095.86247  21347709.9864   21347709.6134
 -10790737.66948  -8408347.67345  23037542.2574   23037542.9034
 -15894459.45449 -12385282.81047  20924586.7074   20924585.7984
 -19961450.29849 -15554366.28447  20568740.0774   20568740.5194
 96  3 15  0 43 30.0000000  0  7G 5G20G12G 9G 7G 4G24
 -14166955.26949 -11039179.25146  21793478.4584   21793478.3624
  -4942390.88048  -3851211.52144  24179329.4184   24179328.9564
  13086139.309 8  10196987.550 8  24589723.922    24589720.725
 -19070861.23049 -14860402.53647  21355449.6974   21355449.4964
 -10723153.13348  -8355684.40645  23050403.2314   23050403.4784
 -15849999.60749 -12350638.77347  20933047.2424   20933046.1234
 -19994688.62449 -15580266.26847  20562414.7934   20562415.1874
 96  3 15  0 44  0.0000000  0  7G 5G20G12G 9G 7G 4G24
 -14239617.94849 -11095799.50346  21779650.8304   21779650.3454
  -5039707.19248  -3927042.38444  24160811.5244   24160813.1204
  13192907.321 8  10280183.347 7  24610040.995    24610038.041
 -19029625.40249 -14828270.73247  21363296.5144   21363296.3204
 -10655489.56548  -8302959.59145  23063278.3614   23063280.0334
 -15805030.30049 -12315597.75747  20941604.4354   20941603.3044
 -20027368.08549 -15605730.77047  20556196.3434   20556196.7134
 96  3 15  0 44 30.0000000  0  7G 5G20G12G 9G 7G 4G24
 -14312088.14149 -11152269.76646  21765860.3774   21765860.0114
  -5136990.34048  -4002847.41544  24142299.1374   24142302.5734
  13299823.505 8  10363494.600 7  24630386.626    24630383.451
 -18987847.54249 -14795716.56847  21371246.9404   21371246.4244
 -10587751.19648  -8250176.47845  23076169.0974   23076168.8124
 -15759569.24149 -12280173.55247  20950255.2324   20950254.4944
 -20059491.22049 -15630761.77247  20550083.4274   20550083.7254
 96  3 15  0 45  0.0000000  0  7G 5G20G12G 9G 7G 4G24
 -14384385.92949 -11208605.69046  21752102.5214   21752101.9744
  -5234259.92148  -4078641.81044  24123788.2814   24123791.5884
  13406858.446 8  10446898.393 7  24650754.448    24650751.831
 -18945556.78749 -14762762.74747  21379294.6474   21379294.6344
 -10519937.88348  -8197334.96745  23089073.1824   23089073.8284
 -15713638.95349 -12244383.71947  20958995.6144   20958994.8574
 -20091069.47149 -15655368.19047  20544074.3444   20544074.6644
 96  3 15  0 45 30.0000000  0  7G 5G20G12G 9G 7G 4G24
 -14456500.84949 -11264799.12546  21738379.5884   21738378.7954
  -5331519.04348  -4154428.12044  24105281.8854   24105282.9404
  13514014.415 8  10530396.492 7  24671146.019    24671143.099
 -18902771.01449 -14729423.19747  21387436.8454   21387436.4864
 -10452040.21548  -8144427.69345  23101994.4684   23101994.9614
 -15667225.02649 -12208217.02547  20967827.9004   20967826.7144
 -20122104.23049 -15679551.10847  20538168.5104   20538168.8494
 96  3 15  0 46  0.0000000  0  7G 5G20G12G 9G 7G 4G24
 -14528482.86449 -11320889.00046  21724681.9234   21724681.5424
  -5428826.68348  -4230252.20944  24086764.5904   24086767.6994
  13621220.690 8  10613933.798 7  24691546.239    24691544.039
 -18859580.92749 -14695768.59647  21395655.3794   21395654.9634
 -10384157.01848  -8091531.70345  23114912.2204   23114913.1874
 -15620380.68649 -12171714.93847  20976742.1744   20976741.4324
 -20152670.15649 -15703368.70047  20532351.8494   20532352.2604
 96  3 15  0 46 30.0000000  0  7G 5G20G12G 9G 7G 4G24
 -14600275.99649 -11376831.68846  21711020.3244   21711020.0314
  -5526155.08248  -4306092.46144  24068243.3944   24068244.1374
  13728507.953 8  10697534.211 7  24711962.919    24711959.999
 -18815947.48449 -14661768.51947  21403958.6504   21403958.3534
 -10316281.18348  -8038641.45645  23127828.2354   23127828.5144
 -15573075.46949 -12134853.73547  20985744.2294   20985743.1864
 -20182732.29849 -15726793.73347  20526631.2154   20526631.6754
 96  3 15  0 47  0.0000000  0  7G 5G20G12G 9G 7G 4G24
 -14671871.22749 -11432620.16146  21697395.9384   21697395.5754
  -5623497.70748  -4381943.84044  24049719.6104   24049722.4704
  13835887.805 7  10781206.765 7  24732396.459    24732393.794
 -18771856.73149 -14627412.09947  21412348.0894   21412348.0454
 -10248409.72548  -7985754.61845  23140743.8114   23140744.1094
 -15525300.94349 -12097626.83047  20994835.2394   20994834.3804
 -20212290.29649 -15749825.92647  20521006.6194   20521007.0014
 96  3 15  0 47 30.0000000  0  7G 5G20G12G 9G 7G 4G24
 -14743236.95549 -11488229.80046  21683815.6904   21683815.3594
  -5720829.70648  -4457786.91144  24031196.0864   24031196.6584
  13943393.218 7  10864977.164 7  24752854.412    24752851.467
 -18727279.55049 -14592676.64847  21420831.3164   21420831.3704
 -10180526.68248  -7932858.77245  23153661.6564   23153662.3324
 -15477029.87849 -12060013.01747  21004021.0054   21004020.2784
 -20241325.39849 -15772450.66847  20515481.4424   20515481.7804
 96  3 15  0 48  0.0000000  0  7G 5G20G12G 9G 7G 4G24
 -14814358.19249 -11543648.94646  21670281.6244   21670281.2164
  -5818126.87148  -4533602.83444  24012681.4294   24012683.3924
  14051032.697 7  10948852.003 7  24773337.636    24773334.590
 -18682190.57049 -14557542.38547  21429411.3164   21429410.9674
 -10112630.74048  -7879952.85145  23166581.4104   23166581.0884
 -15428264.28149 -12022013.85447  21013300.9094   21013300.2224
 -20269830.14349 -15794662.14447  20510057.2014   20510057.4084
 96  3 15  0 48 30.0000000  0  7G 5G20G12G 9G 7G 4G24
 -14885241.75149 -11598882.88747  21656792.9854   21656792.5384
  -5915377.50148  -4609382.49144  23994174.6784   23994174.8474
  14158810.989 7  11032835.022 7  24793847.233    24793844.149
 -18636570.03149 -14521993.92447  21438093.0044   21438092.8734
 -10044699.30848  -7827019.27945  23179508.9974   23179508.3204
 -15379008.44849 -11983632.69047  21022673.8274   21022673.1764
 -20297798.26149 -15816455.46847  20504734.9984   20504735.3814
 96  3 15  0 49  0.0000000  0  7G 5G20G12G 9G 7G 4G24
 -14955885.40949 -11653929.87247  21643349.7824   21643349.6574
  -6012558.65048  -4685108.04044  23975681.3194   23975683.2264
  14266744.039 7  11116938.619 8  24814386.249    24814382.925
 -18590404.64249 -14486020.90547  21446877.9094   21446877.9024
  -9976698.41148  -7774031.58045  23192449.0304   23192449.9104
 -15329235.22449 -11944848.36147  21032145.3584   21032144.3064
 -20325211.09449 -15837816.09947  20499518.5464   20499518.9054
 96  3 15  0 49 30.0000000  0  7G 5G20G12G 9G 7G 4G24
 -15026285.53349 -11708787.09446  21629953.1814   21629952.8124
  -6109671.67548  -4760780.48044  23957202.4894   23957201.9544
  14374822.450 7  11201155.489 8  24834952.851    24834949.913
 -18543702.66849 -14449629.77047  21455764.9024   21455764.4864
  -9908638.34248  -7720997.79445  23205399.7574   23205399.7564
 -15278957.07049 -11905670.58047  21041712.8194   21041712.1114
 -20352064.11849 -15858740.52147  20494408.5944   20494408.8014
 96  3 15  0 50  0.0000000  0  7G 5G20G12G 9G 7G 4G24
 -15096463.62249 -11763471.30747  21616598.4924   21616598.0934
  -6206721.11348  -4836403.39744  23938733.7954   23938736.2034
  14483029.141 7  11285472.322 8  24855544.110    24855541.009
 -18496475.97149 -14412829.75647  21464751.9424   21464751.5314
  -9840520.60348  -7667919.08945  23218362.3974   23218362.8824
 -15228188.58549 -11866110.72647  21051373.9884   21051372.9684
 -20378364.04149 -15879233.95347  20489403.7734   20489404.1604
 96  3 15  0 50 30.0000000  0  7G 5G20G12G 9G 7G 4G24
 -15166452.76749 -11818008.29547  21603280.0384   21603279.6144
  -6303738.88448  -4912001.61045  23920273.9234   23920273.5334
  14591345.243 7  11369874.415 8  24876155.976    24876152.977
 -18448743.25549 -14375635.43947  21473835.1894   21473834.9274
  -9772344.79748  -7614795.08345  23231335.6044   23231337.1744
 -15176938.87549 -11826175.88647  21061126.3564   21061125.8244
 -20404114.56549 -15899299.28547  20484503.8214   20484504.0524
 96  3 15  0 51  0.0000000  0  7G 5G20G12G 9G 7G 4G24
 -15236263.95949 -11872406.61047  21589995.5874   21589995.2514
  -6400743.16448  -4987589.32644  23901813.5564   23901815.2714
  14699753.365 8  11454348.217 8  24896785.513    24896782.401
 -18400539.02649 -14338073.71247  21483008.0894   21483008.0264
  -9704130.60048  -7561641.18245  23244316.2564   23244316.6474
 -15125229.28449 -11785882.70647  21070966.3504   21070965.6274
 -20429318.40449 -15918938.63047  20479707.7294   20479707.8724
 96  3 15  0 51 30.0000000  0  7G 5G20G12G 9G 7G 4G24
 -15305895.69949 -11926665.09947  21576745.1184   21576744.8854
  -6497739.74348  -5063171.03244  23883355.6134   23883356.8224
  14808235.600 8  11538879.769 8  24917428.877    24917426.035
 -18351881.89549 -14300159.07547  21492266.9064   21492266.8704
  -9635898.17948  -7508473.07345  23257301.2594   23257300.9844
 -15073081.13049 -11745247.78047  21080890.0284   21080888.9934
 -20453988.03949 -15938161.71047  20475013.1224   20475013.3304
 96  3 15  0 52  0.0000000  0  6G 5G20G12G 9G 7G24
 -15375346.93249 -11980782.92747  21563528.8924   21563528.7214
  -6594724.40348  -5138743.45744  23864900.7444   23864902.6844
  14916789.787 8  11623467.393 8  24938086.083    24938083.156
 -18302772.63949 -14261892.13747  21501612.2504   21501612.4104
  -9567634.83548  -7455280.89745  23270291.1674   23270292.4474
 -20478126.97149 -15956971.25347  20470419.4924   20470419.7554
 96  3 15  0 52 30.0000000  0  6G 5G20G12G 9G 7G24
 -15444624.19549 -12034765.19947  21550345.9004   21550345.4404
  -6691708.75148  -5214315.64244  23846443.7404   23846445.6844
  15025396.349 8  11708095.826 8  24958753.249    24958750.309
 -18253230.63649 -14223287.99547  21511040.3274   21511040.1214
  -9499365.93148  -7402084.37245  23283282.6464   23283283.1994
 -20501751.70649 -15975380.12847  20465923.8594   20465924.0744
 96  3 15  0 53  0.0000000  0  6G 5G20G12G 9G 7G24
 -15513692.10549 -12088584.33947  21537202.5774   21537202.4724
  -6788662.14348  -5289863.70945  23827993.9024   23827996.2054
  15134069.137 8  11792775.873 8  24979433.083    24979430.100
 -18203247.19649 -14184339.87047  21520551.6494   21520551.5444
  -9431085.80648  -7348879.09945  23296275.4054   23296276.7524
 -20524861.42549 -15993387.69347  20461526.2814   20461526.5054
 96  3 15  0 53 30.0000000  0  6G 5G20G12G 9G 7G24
 -15582528.84749 -12142223.34147  21524103.0444   21524102.9124
  -6885566.35948  -5365373.45645  23809554.4204   23809557.5744
  15242828.491 8  11877523.366 8  25000129.222    25000126.034
 -18152780.40749 -14145015.11547  21530155.2544   21530155.2144
  -9362763.85648  -7295641.21145  23309276.5224   23309276.3374
 -20547443.25149 -16010983.90847  20457228.8614   20457229.1424
 96  3 15  0 54  0.0000000  0  7G 5G20G 6G12G 9G 7G24
 -15651155.50949 -12195698.65547  21511044.4174   21511043.9404
  -6982434.58348  -5440855.18245  23791121.6134   23791123.0844
        -1.21158                  25457249.5354
  15351668.143 8  11962333.426 8  25020840.614    25020837.804
 -18101840.33049 -14105321.55947  21539848.9404   21539848.5034
  -9294408.30748  -7242377.14745  23322283.8594   23322284.1454
 -20569502.39149 -16028172.83847  20453031.2414   20453031.3754
 96  3 15  0 54 30.0000000  0  7G 5G20G 6G12G 9G 7G24
 -15719584.87549 -12249020.23147  21498022.3924   21498022.3254
  -7079291.26448  -5516327.89245  23772689.1544   23772692.5624
    -73679.98448                  25443228.4254
  15460567.996 8  12047190.401 7  25041563.625    25041560.549
 -18050451.69549 -14065278.48147  21549627.8354   21549627.4844
  -9226043.51948  -7189105.93445  23335293.2134   23335294.9404
 -20591065.91349 -16044975.57247  20448927.9234   20448928.0704
 96  3 15  0 55  0.0000000  0  6G 5G20G12G 9G 7G24
 -15787791.00549 -12302167.85147  21485043.3764   21485043.0224
  -7176131.56248  -5591787.82545  23754261.9084   23754262.2214
  15569536.939 8  12132101.201 7  25062299.740    25062296.912
 -17998618.53549 -14024889.02047  21559490.8634   21559490.8884
  -9157655.21148  -7135816.35945  23348308.0884   23348307.8894
 -20612125.36249 -16061385.52347  20444920.5554   20444920.7614
 96  3 15  0 55 30.0000000  0  6G 5G20G12G 9G 7G24
 -15855777.65549 -12355144.45547  21472106.2964   21472105.7164
  -7272957.63548  -5667236.65745  23735837.4014   23735837.0334
  15678570.637 8  12217062.459 7  25083048.337    25083045.390
 -17946350.13249 -13984160.40947  21569437.6394   21569437.7394
  -9089248.24948  -7082512.25545  23361324.7074   23361325.7574
 -20632672.22249 -16077396.05147  20441010.4264   20441010.7004
 96  3 15  0 56  0.0000000  0  6G 5G20G12G 9G 7G24
 -15923510.24049 -12407923.08547  21459216.9884   21459216.5484
  -7369734.60248  -5742647.23945  23717421.4034   23717419.7444
  15787688.827 8  12302089.560 7  25103812.744    25103810.008
 -17893643.15349 -13943090.05047  21579467.6724   21579467.5014
  -9020813.30748  -7029186.33945  23374347.9214   23374348.9154
 -20652683.22049 -16092989.02647  20437202.5034   20437202.7924
 96  3 15  0 56 30.0000000  0  6G 5G20G12G 9G 7G24
 -15990972.87649 -12460491.36247  21446379.0844   21446378.4504
  -7466451.62148  -5818011.11045  23699016.5754   23699015.6104
  15896886.836 8  12387178.842 7  25124592.858    25124590.055
 -17840490.25149 -13901672.21547  21589581.9984   21589581.5774
  -8952346.00248  -6975835.22945  23387376.6234   23387377.2984
 -20672156.68849 -16108163.14747  20433496.6244   20433496.8514
 96  3 15  0 57  0.0000000  0  6G 5G20G12G 9G 7G24
 -16058162.89649 -12512847.21647  21433593.3814   21433592.8574
  -7563093.37548  -5893316.32045  23680625.7234   23680625.6044
  16006174.273 8  12472337.804 7  25145389.582    25145386.610
 -17786881.43949 -13859899.12147  21599783.4274   21599783.1484
  -8883837.96048  -6922452.35945  23400414.0354   23400412.9264
 -20691067.97449 -16122899.20347  20429897.9544   20429898.2934
 96  3 15  0 57 30.0000000  0  6G 5G20G12G 9G 7G24
 -16125110.01749 -12565013.79547  21420853.7504   21420853.3254
  -7659669.54748  -5968570.45545  23662247.2954   23662249.3874
  16115537.063 8  12557555.486 7  25166200.719    25166197.981
 -17732809.75949 -13817765.35747  21610073.0134   21610072.6474
  -8815310.03448  -6869053.96545  23413454.3994   23413455.6204
 -20709426.23549 -16137204.33147  20426404.5264   20426404.9124
 96  3 15  0 58  0.0000000  0  6G 5G20G12G 9G 7G24
 -16191798.88549 -12616979.13947  21408163.4224   21408162.7824
  -7756150.22948  -6043750.16445  23643887.6204   23643889.1264
  16224996.022 8  12642848.105 7  25187030.493    25187026.741
 -17678242.18849 -13775245.17747  21620457.1464   21620456.7254
  -8746731.45348  -6815616.08845  23426503.2414   23426503.7064
 -20727216.96049 -16151067.22047  20423019.1694   20423019.3034
 96  3 15  0 58 30.0000000  0  6G 5G20G12G 9G 7G24
 -16258245.24849 -12668755.51847  21395518.8694   21395518.5774
  -7852555.54048  -6118871.15845  23625542.1104   23625543.0884
  16334537.181 8  12728204.774 7  25207875.513    25207872.076
 -17623179.36949 -13732339.09347  21630934.8744   21630934.6734
  -8678108.88148  -6762144.02245  23439560.7904   23439560.6764
 -20744447.83449 -16164493.86347  20419740.3124   20419740.4444
 96  3 15  0 59  0.0000000  0  6G 5G20G12G 9G 7G24
 -16324480.57849 -12720367.45147  21382914.6514   21382914.1104
  -7948923.09748  -6193962.71245  23607204.0844   23607204.3314
  16444137.809 8  12813607.795 7  25228731.636    25228728.158
 -17567655.84449 -13689074.01546  21641500.7774   21641500.5234
  -8609480.00848  -6708666.99845  23452621.4814   23452622.0804
 -20761139.62049 -16177500.44147  20416563.8984   20416564.0004
 96  3 15  0 59 30.0000000  0  6G 5G20G12G 9G 7G24
 -16390493.62649 -12771806.18347  21370352.9734   21370352.5654
  -8045237.19948  -6269012.65745  23588876.5984   23588877.8794
  16553792.702 8  12899053.095 8  25249598.490    25249595.094
 -17511672.28249 -13645450.46546  21652153.7944   21652153.8424
  -8540845.39048  -6655185.50345  23465682.6994   23465683.1504
 -20777302.38649 -16190094.79347  20413488.2924   20413488.4224
 96  3 15  1  0  0.0000000  0  6G 5G20G12G 9G 7G24
 -16456266.11049 -12823057.45947  21357836.7024   21357836.2494
  -8141492.41848  -6344016.68445  23570559.6884   23570560.9754
  16663503.599 8  12984542.019 8  25270476.026    25270472.461
 -17455248.68649 -13601484.03046  21662891.1034   21662890.7664
  -8472186.58348  -6601685.13645  23478748.5484   23478747.3554
 -20792936.52049 -16202277.22447  20410513.1624   20410513.3604
 96  3 15  1  0 30.0000000  0  6G 5G20G12G 9G 7G24
 -16521793.94949 -12874118.10147  21345367.2254   21345366.7124
  -8237704.21148  -6418986.85145  23552251.7504   23552253.2994
  16773264.414 8  13070069.843 8  25291362.585    25291359.063
 -17398406.89549 -13557191.72646  21673707.9504   21673707.4474
  -8403514.39748  -6548174.34945  23491815.2974   23491816.5634
 -20808045.22849 -16214050.23447  20407637.9524   20407637.8754
 96  3 15  1  1  0.0000000  0  6G 5G20G12G 9G 7G24
 -16587073.58249 -12924985.34847  21332944.6584   21332944.2034
  -8333855.43148  -6493909.82345  23533954.1654   23533954.4584
  16883077.189 8  13155638.169 8  25312259.437    25312256.240
 -17341154.86549 -13512579.75946  21684602.4534   21684602.4414
  -8334823.92748  -6494649.33945  23504886.7804   23504886.5374
 -20822629.05749 -16225414.24647  20404862.6844   20404862.9054
 96  3 15  1  1 30.0000000  0  6G 5G20G12G 9G 7G24
 -16652072.81549 -12975634.09147  21320576.0704   21320575.8674
  -8429907.26048  -6568755.37545  23515676.0244   23515675.6374
  16992958.455 8  13241259.877 8  25333169.355    25333165.733
 -17283465.59349 -13467627.08746  21695580.4134   21695580.4844
  -8266070.87248  -6441075.54145  23517970.6364   23517972.6244
 -20836681.13949 -16236363.91147  20402188.5854   20402188.7794
 96  3 15  1  2  0.0000000  0  7G 5G20G 6G12G 9G 7G24
 -16716813.84649 -13026081.63447  21308256.0864   21308255.7054
  -8525903.87348  -6643557.88945  23497408.8264   23497408.3894
        -0.04657                  25234184.8554
  17102890.312 8  13326921.018 7  25354088.517    25354085.437
 -17225358.82149 -13422349.09746  21706637.7104   21706637.7114
  -8197269.70048  -6387464.24345  23531063.2084   23531063.1204
 -20850218.64149 -16246912.60647  20399612.6234   20399612.7884
 96  3 15  1  2 30.0000000  0  7G 5G20G 6G12G 9G 7G24
 -16781284.31749 -13076318.35647  21295987.9774   21295987.4304
  -8621830.92048  -6718306.16345  23479154.4444   23479155.9234
    -72723.02047                  25220345.4424
  17212881.861 8  13412628.687 7  25375019.432    25375016.273
 -17166809.01849 -13376725.88346  21717779.4994   21717779.3684
  -8128425.35148  -6333819.33045  23544163.6104   23544162.8964
 -20863222.13749 -16257045.19147  20397138.1334   20397138.3544
 96  3 15  1  3  0.0000000  0  6G 5G20G12G 9G 7G24
 -16845496.33849 -13126353.69247  21283768.8034   21283768.5834
  -8717705.74748  -6793013.76845  23460910.0204   23460909.9144
  17322908.698 7  13498363.855 7  25395956.938    25395953.461
 -17107831.42449 -13330769.32446  21729002.4564   21729002.4384
  -8059554.35648  -6280153.66444  23557269.1384   23557269.0724
 -20875710.77149 -16266776.58547  20394761.6594   20394761.8054
 96  3 15  1  3 30.0000000  0  6G 5G20G12G 9G 7G24
 -16909455.38649 -13176191.90147  21271597.4184   21271597.2264
  -8813545.75448  -6867694.25645  23442671.9274   23442671.4004
  17432960.002 7  13584118.075 7  25416898.837    25416895.818
 -17048441.33449 -13284491.34946  21740304.2874   21740304.3484
  -7990672.21848  -6226479.25745  23570377.0234   23570377.8584
 -20887697.21649 -16276116.66147  20392480.8234   20392480.6884
 96  3 15  1  4  0.0000000  0  7G 5G20G12G 9G 7G16G24
 -16973134.40249 -13225811.91247  21259479.9684   21259479.5774
  -8909312.51748  -6942317.68745  23424447.6404   23424448.7154
  17543069.729 7  13669917.837 7  25437852.204    25437848.600
 -16988616.56449 -13237874.65746  21751688.4934   21751688.3124
  -7921770.65348  -6172789.73245  23583489.4394   23583488.8714
        -1.12757                  24619845.7114
 -20899126.43549 -16285022.54247  20390305.8724   20390305.7464
 96  3 15  1  4 30.0000000  0  7G 5G20G 6G 9G 7G16G24
 -17036530.35849 -13275211.34747  21247416.3234   21247415.9754
  -9004970.17348  -7016856.06045  23406244.5944   23406244.4324
        -0.30157                  25165105.0334
 -16928358.39649 -13190920.25246  21763154.9344   21763154.6414
  -7852846.82848  -6119082.87345  23596604.5864   23596603.6994
    -92800.52247                  24602187.4264
 -20909988.91249 -16293486.79947  20388238.6004   20388238.8104
 96  3 15  1  5  0.0000000  0  8G 5G20G 6G 4G 9G 7G16G24
 -17099679.16749 -13324418.20047  21235399.2964   21235398.8624
  -9100537.28048  -7091323.91245  23388059.3454   23388060.5574
    -72446.88148                  25151316.8544
        -0.66059        -0.43557  21380212.8064   21380212.1804
 -16867703.93949 -13143657.04446  21774697.1604   21774696.5354
  -7783917.10148  -6065371.41845  23609721.4894   23609723.7744
   -185697.06747                  24584508.2824
 -20920320.12149 -16301537.08347  20386272.8054   20386272.9304
 96  3 15  1  5 30.0000000  0  8G 5G20G 6G 4G 9G 7G16G24
 -17162570.17949 -13373424.18247  21223431.5214   21223430.9304
  -9195981.25848  -7165695.80845  23369896.4554   23369897.6454
   -144844.90348                  25137540.1194
     64107.49349     49953.96547  21392411.9884   21392411.5794
 -16806627.46149 -13096064.99446  21786319.6274   21786319.0894
  -7714956.30348  -6011635.78045  23622844.4844   23622846.7094
   -278685.05647                  24566813.9864
 -20930104.81049 -16309161.50847  20384410.9054   20384411.1134
 96  3 15  1  6  0.0000000  0  6G 5G20G 4G 9G 7G24
 -17225194.18849 -13422222.10847  21211514.4624   21211514.0144
  -9291282.94248  -7239956.84545  23351761.5184   23351761.8824
    128609.66949    100215.39047  21404686.4564   21404685.6634
 -16745114.82749 -13048133.08246  21798025.0944   21798025.0144
  -7645945.19748  -5957860.91945  23635977.1634   23635978.4024
 -20939340.92249 -16316358.47147  20382653.1814   20382653.4154
 96  3 15  1  6 30.0000000  0  6G 5G20G 4G 9G 7G24
 -17287586.24649 -13470839.28747  21199641.8654   21199641.4144
  -9386495.59448  -7314148.47345  23333644.1524   23333643.0004
    193468.15449    150754.46447  21417028.5024   21417027.8004
 -16683193.26349 -12999882.51846  21809808.2834   21809808.2684
  -7576902.75248  -5904061.64045  23649114.8244   23649114.3264
 -20948088.19049 -16323174.51447  20380988.7784   20380989.1004
 96  3 15  1  7  0.0000000  0  7G 5G20G 6G 4G 9G 7G24
 -17349721.51849 -13519256.37547  21187817.8714   21187817.4254
  -9481631.97848  -7388280.70545  23315540.1504   23315540.9594
        -0.57857                  25096230.0864
    258724.65849    201603.68447  21429446.2074   21429445.7244
 -16620852.32449 -12951305.17746  21821671.2404   21821671.5264
  -7507826.26548  -5850235.83445  23662260.1144   23662261.5664
 -20956353.87549 -16329615.29947  20379416.0254   20379415.9804
 96  3 15  1  7 30.0000000  0  7G 5G20G 6G 4G 9G 7G24
 -17411597.00749 -13567471.03647  21176043.2164   21176042.8674
  -9576706.74748  -7462364.87845  23297446.8724   23297448.5814
    -72324.09348    -56355.48044  25082469.6654
    324371.35549    252756.94247  21441938.7254   21441937.8364
 -16558111.19949 -12902415.99346  21833610.7314   21833610.7074
  -7438736.81348  -5796399.88245  23675406.9024   23675405.1564
 -20964149.12849 -16335689.51247  20377932.4534   20377932.6644
 96  3 15  1  8  0.0000000  0  7G 5G20G 6G 4G 9G 7G24
 -17473223.71749 -13615491.84647  21164316.0114   21164315.3964
  -9671745.53748  -7536421.03545  23279362.0814   23279361.8024
   -144638.92148                  25068708.6994
    390369.83349    304184.32047  21454497.9964   21454496.8294
 -16495002.70049 -12853240.55246  21845619.9504   21845619.9354
  -7369669.35948  -5742581.08644  23688549.3674   23688549.7184
 -20971480.47849 -16341402.24247  20376537.2394   20376537.3904
 96  3 15  1  8 30.0000000  0  7G 5G20G 6G 4G 9G 7G24
 -17534588.37349 -13663308.45947  21152638.5784   21152637.9904
  -9766756.39848  -7610455.44745  23261282.4744   23261282.7184
   -216917.70748                  25054954.1704
    456731.61849    355894.79346  21467125.9164   21467125.0494
 -16431536.61649 -12803786.47146  21857697.1234   21857697.4324
  -7300628.27948  -5688782.88045  23701688.1294   23701689.2054
 -20978328.91549 -16346738.68047  20375234.1194   20375234.1474
 96  3 15  1  9  0.0000000  0  7G 5G20G 6G 4G 9G 7G24
 -17595647.79749 -13710887.22147  21141019.6844   21141019.0954
  -9861688.77748  -7684428.72445  23243216.5324   23243217.2254
   -289129.51848   -225294.55544  25041214.2924
    523467.38749    407896.68046  21479825.2584   21479824.4624
 -16367703.72049 -12754046.56446  21869844.3484   21869844.3844
  -7231585.76448  -5634983.56245  23714827.3624   23714827.8384
 -20984645.24849 -16351660.48947  20374031.9964   20374032.2304
 96  3 15  1  9 30.0000000  0  7G 5G20G 6G 4G 9G 7G24
 -17656408.62349 -13758233.31147  21129457.0354   21129456.6094
  -9956518.50248  -7758321.97945  23225171.2284   23225171.6574
   -361276.69148   -281513.05044  25027483.7284   25027487.0474
    590552.80549    460171.02247  21492591.0454   21492590.4054
 -16303502.34449 -12704019.53346  21882061.2144   21882061.0984
  -7162530.52748  -5581174.28745  23727968.2414   23727968.0274
 -20990407.35549 -16356150.43847  20372935.5774   20372935.7574
 96  3 15  1 10  0.0000000  0  7G 5G20G 6G 4G 9G 7G24
 -17716845.46849 -13805326.95447  21117956.5794   21117955.9924
 -10051223.55148  -7832118.08945  23207148.8984   23207149.2264
   -433327.06748   -337656.14644  25013771.7324
    658030.73449    512751.21746  21505431.6734   21505430.7554
 -16238898.59449 -12653678.96146  21894355.4224   21894354.9134
  -7093425.29748  -5527326.07744  23741117.8204   23741117.6144
 -20995581.83049 -16360182.48947  20371951.0324   20371951.3284
 96  3 15  1 10 30.0000000  0  7G 5G20G 6G 4G 9G 7G24
 -17776960.39849 -13852169.75247  21106516.9614   21106516.2414
 -10145805.22948  -7905818.05245  23189151.1674   23189150.7814
   -505289.55548   -393730.77044  25000077.7804
    725907.80749    565642.43746  21518348.2904   21518347.7394
 -16173904.28249 -12603034.05446  21906723.2164   21906722.8744
  -7024267.69048  -5473437.06444  23754277.6374   23754279.9984
 -21000188.35149 -16363771.98247  20371074.5054   20371074.2014
 96  3 15  1 11  0.0000000  0  7G 5G20G 6G 4G 9G 7G24
 -17836796.81149 -13898795.52347  21095130.5404   21095129.9894
 -10240288.35348  -7979441.28145  23171171.3474   23171171.6874
   -577217.66448   -449778.65344  24986389.9424
    794156.34349    618823.10446  21531335.7764   21531334.7684
 -16108541.18449 -12552101.78246  21919161.0284   21919160.7244
  -6955087.56448  -5419530.41344  23767442.1494   23767445.3334
 -21004272.30049 -16366954.27547  20370297.0784   20370297.2704
 96  3 15  1 11 30.0000000  0  7G 5G20G 6G 4G 9G 7G24
 -17896320.73949 -13945177.80047  21083803.2604   21083802.9204
 -10334647.50948  -8052967.83545  23153215.3674   23153217.6444
   -649062.40248   -505761.49844  24972715.4154
    862830.95549    672335.78646  21544404.2324   21544403.6104
 -16042751.73549 -12500837.28046  21931680.4704   21931680.5034
  -6885855.27448                  23780618.0014
 -21007800.53249 -16369703.54247  20369625.7264   20369625.7714
 96  3 15  1 12  0.0000000  0  7G 5G20G 6G 4G 9G 7G24
 -17955522.32649 -13991308.90147  21072537.5564   21072537.0534
 -10428892.92848  -8126405.78045  23135281.0594   23135282.3044
   -720833.62648                  24959057.5324
    931930.85749    726179.85246  21557553.4474   21557553.0214
 -15976546.24649 -12449248.59946  21944278.9824   21944278.8384
  -6816565.92848  -5311590.23845  23793803.0094   23793803.3104
 -21010779.82649 -16372025.06747  20369058.9784   20369058.9724
 96  3 15  1 12 30.0000000  0  8G 5G20G 6G 4G 9G 7G16G24
 -18014410.27249 -14037195.60647  21061331.7614   21061331.0444
 -10523021.31548  -8199752.54145  23117368.9364   23117369.0284
   -792550.39548   -617570.24744  24945413.1234   24945413.3804
   1001414.91949    780323.26546  21570775.6184   21570775.0064
 -15909937.43349 -12397345.64646  21956954.2164   21956953.7064
  -6747223.12948  -5257560.06644  23806998.2374   23806995.2674
        -0.57758                  24317434.0614
 -21013229.87849 -16373934.19347  20368592.4784   20368592.8134
 96  3 15  1 13  0.0000000  0  8G 5G20G 6G 4G 9G 7G16G24
 -18073001.94149 -14082851.44547  21050182.0954   21050181.5864
 -10617046.75348  -8273019.10245  23099476.4474   23099476.6434
   -864226.58848                  24931774.1144
   1071256.98549    834745.64746  21584065.9774   21584065.2464
 -15842920.41549 -12345124.60546  21969707.4864   21969707.1624
  -6677844.25748                  23820200.5614
    -94060.93248                  24299535.3454
 -21015159.15649 -16375437.52047  20368225.5584   20368225.7244
 96  3 15  1 13 30.0000000  0  8G 5G20G 6G 4G 9G 7G16G24
 -18131304.36049 -14128281.89447  21039087.3904   21039086.9814
 -10710977.83948  -8346212.11945  23081602.5614   23081601.9624
   -935864.09548                  24918143.4434
   1141424.86749    889421.90646  21597418.4184   21597418.0884
 -15775519.12649 -12292604.13646  21982533.5804   21982533.2474
  -6608457.48648                  23833402.8234
   -188147.41348                  24281631.3294
 -21016581.57349 -16376545.89547  20367954.7544   20367954.8024
 96  3 15  1 14  0.0000000  0  8G 5G20G 6G 4G 9G 7G16G24
 -18189316.99149 -14173486.53747  21028048.0494   21028047.6264
 -10804799.91548  -8419320.20445  23063748.7104   23063748.2754
  -1007466.10547                  24904516.8844
   1211909.25949    944344.79746  21610831.5714   21610830.7704
 -15707741.20249 -12239790.18446  21995431.4884   21995431.0904
  -6539057.57148  -5095353.32344  23846610.0534
   -282254.99648   -219938.99144  24263722.8834
 -21017512.01749 -16377270.91347  20367777.8234   20367777.8744
 96  3 15  1 14 30.0000000  0  8G 5G20G 6G 4G 9G 7G16G24
 -18247028.62349 -14218456.63447  21017066.1934   21017065.7094
 -10898501.14248  -8492334.11445  23045917.7854   23045917.4534
  -1079012.36247                  24890900.9204
   1282730.82649    999530.42446  21624308.3964   21624307.9364
 -15639560.28549 -12186662.20946  22008405.6894   22008405.5204
  -6469636.81748  -5041259.24544  23859821.3334   23859819.2764
   -376352.60748   -293261.77144  24245816.0074   24245819.8404
 -21017934.62649 -16377600.21247  20367697.4224   20367697.5024
 96  3 15  1 15  0.0000000  0  8G 5G20G 6G 4G 9G 7G16G24
 -18304435.19149 -14263189.01547  21006141.8244   21006141.3394
 -10992091.97848  -8565262.02745  23028108.4014   23028107.8444
  -1150505.94847                  24877296.4404
   1353907.39849   1054992.68046  21637852.9264   21637852.3104
 -15570991.75849 -12133232.20346  22021453.2914   22021453.6904
  -6400216.31448  -4987165.29144  23873030.9974   23873031.0334
   -470445.78348   -366581.03044  24227911.4914   24227910.4354
 -21017847.26249 -16377532.13247  20367714.1044   20367713.9644
 96  3 15  1 15 30.0000000  0  8G 5G20G 6G 4G 9G 7G16G24
 -18361486.51449 -14307644.58347  20995285.0854   20995284.7394
 -11085544.14748  -8638081.87745  23010324.3704   23010326.2024
  -1221918.10847                  24863704.3114
   1425461.57249   1110749.17146  21651469.0704   21651468.1994
 -15502037.75749 -12079501.83946  22034575.1894   22034575.7064
  -6330754.69248                  23886249.2864
   -564526.14448   -439890.38444  24210008.2564   24210010.6574
 -21017224.86949 -16377047.14447  20367832.4854   20367832.5804
 96  3 15  1 16  0.0000000  0  8G 5G20G 6G 4G 9G 7G16G24
 -18418211.13349 -14351845.57447  20984490.9764   20984490.5024
 -11178891.37548  -8710819.93545  22992560.7034   22992561.8274
  -1293301.75747                  24850122.0374
   1497360.50249   1166774.30046  21665151.3404   21665150.6244
 -15432744.13849 -12025506.82746  22047761.6254   22047761.5334
  -6261259.87948  -4878884.76046  23899473.5884   23899473.5494
   -658641.22848   -513226.74444  24192097.9834   24192098.2294
 -21016100.05749 -16376170.66347  20368046.3674   20368046.4114
 96  3 15  1 16 30.0000000  0  8G 5G20G 6G 4G 9G 7G16G24
 -18474614.39449 -14395796.16347  20973757.8044   20973757.0404
 -11272143.89148  -8783484.18745  22974815.1554   22974815.2644
  -1364672.22548  -1063379.06344  24836541.2484
   1569588.43749   1223055.79946  21678895.5854   21678894.9084
 -15363123.07149 -11971256.65846  22061010.0454   22061009.7914
  -6191740.44348  -4824715.68244  23912702.7194   23912699.5284
   -752798.36148   -586595.86944  24174180.1834   24174183.2814
 -21014460.35349 -16374892.96847  20368358.5014   20368358.6714
 96  3 15  1 17  0.0000000  0  8G 5G20G 6G 4G 9G 7G16G24
 -18530679.92549 -14439483.58447  20963088.8804   20963088.4384
 -11365269.48348  -8856049.57245  22957094.5884   22957094.8374
  -1436016.71848  -1118972.13844  24822965.0074
   1642145.51449   1279593.77046  21692702.9974   21692702.2264
 -15293176.05049 -11916752.50046  22074319.9014   22074319.7294
  -6122185.39148  -4770516.95044  23925938.8924   23925937.8824
   -846993.87548   -659994.91644  24156255.3714   24156257.6214
 -21012298.53349 -16373208.42847  20368769.7004   20368769.8374
 96  3 15  1 17 30.0000000  0  8G 5G20G 6G 4G 9G 7G16G24
 -18586401.50549 -14482902.98447  20952485.4014   20952485.0664
 -11458235.12948  -8928490.32345  22939403.6894   22939404.6214
  -1507323.05748  -1174535.44344  24809397.6374
   1715029.63649   1336386.58646  21706572.5364   21706571.9264
 -15222884.07549 -11861979.55146  22087696.4784   22087695.9654
  -6052576.37048  -4716276.11444  23939184.7994   23939186.9124
   -941217.21748   -733415.62745  24138325.2754   24138329.6974
 -21009602.42949 -16371107.56247  20369282.9484   20369282.9444
 96  3 15  1 18  0.0000000  0  8G 5G20G 6G 4G 9G 7G16G24
 -18641802.00449 -14526072.19847  20941942.9154   20941942.5514
 -11551040.21448  -9000805.94145  22921743.7644   22921744.0314
  -1578588.52448  -1230066.93944  24795835.5734   24795836.7184
   1788247.80349   1393439.69346  21720505.1914   21720504.6734
 -15152232.80049 -11806926.62746  22101140.7834   22101140.6304
  -5982935.99148  -4662010.88644  23952437.1674   23952440.6354
  -1035458.48148   -806850.31845  24120392.6004   24120394.2884
 -21006373.03849 -16368591.15347  20369897.4894   20369897.5364
 96  3 15  1 18 30.0000000  0  8G 5G20G 6G 4G 9G 7G16G24
 -18696889.26849 -14568997.33747  20931460.0944   20931459.8224
 -11643688.41348  -9072999.29645  22904113.1314   22904112.8344
  -1649803.50948  -1285559.06644  24782283.8524   24782284.5264
   1861798.93449   1450752.25146  21734501.2724   21734500.5874
 -15081229.55249 -11751599.43946  22114652.4604   22114652.1474
  -5913289.33348  -4607740.74944  23965690.7484   23965688.2014
  -1129716.50348   -880298.04344  24102455.3294   24102456.6894
 -21002621.50649 -16365667.87647  20370611.2204   20370611.5214
 96  3 15  1 19  0.0000000  0  8G 5G20G 6G 4G 9G 7G16G24
 -18751647.33649 -14611665.95647  20921040.1284   20921039.5574
 -11736168.77149  -9145061.89645  22886514.7674   22886515.1894
  -1720953.04848  -1341000.24044  24768743.6514   24768746.9704
   1935697.19649   1508335.30646  21748564.0234   21748563.4744
 -15009878.36249 -11696001.12546  22128230.1394   22128230.3044
  -5843628.38748  -4553459.50244  23978947.4424   23978949.0744
  -1223981.07548   -953750.88045  24084517.9274   24084518.9834
 -20998361.81649 -16362348.63747  20371421.9424   20371422.0294
 96  3 15  1 19 30.0000000  0  8G 5G20G 6G 4G 9G 7G16G24
 -18806078.29649 -14654079.68447  20910682.3304   20910681.9084
 -11828495.37148  -9217004.68145  22868945.0114   22868945.9254
  -1792032.92847                  24755217.8024
   2009941.36449   1566187.89546  21762692.3054   21762691.6044
 -14938171.85549 -11640125.94246  22141874.9974   22141875.2944
  -5773950.64348  -4499165.14844  23992205.1414   23992207.5444
  -1318244.85648  -1027203.06445  24066579.4634   24066582.5604
 -20993598.54749 -16358636.99547  20372328.3924   20372328.6744
 96  3 15  1 20  0.0000000  0  7G 5G20G 4G 9G 7G16G24
 -18860179.99049 -14696236.83947  20900387.0574   20900386.4274
 -11920679.67449  -9288836.57445  22851402.9824   22851404.3404
   2084527.14849   1624306.67946  21776885.6284   21776884.7884
 -14866114.44049 -11583977.32846  22155586.9734   22155586.9834
  -5704242.33348  -4444846.98244  24005470.6394   24005471.0374
  -1412498.67648  -1100647.51944  24048642.7094   24048643.9564
 -20988334.74849 -16354535.32747  20373329.9234   20373330.0254
 96  3 15  1 20 30.0000000  0  7G 5G20G 4G 9G 7G16G24
 -18913952.89549 -14738137.80947  20890154.5294   20890154.0764
 -12012721.44149  -9360557.39646  22833887.8384   22833888.2784
   2159439.30249   1682679.77546  21791140.9044   21791140.3754
 -14793716.90749 -11527563.68546  22169363.9744   22169364.1354
  -5634497.31048  -4390500.20444  24018742.4354   24018742.7634
  -1506746.12648  -1174086.95544  24030708.6694   24030710.5954
 -20982580.14849 -16350051.22147  20374425.1304   20374425.1024
 96  3 15  1 21  0.0000000  0  8G 5G20G 6G 4G 9G 7G16G24
 -18967400.47449 -14779785.26747  20879983.7874   20879983.5514
 -12104626.46549  -9432171.67046  22816399.1234   22816399.3824
        -0.63858         0.10354  24714717.8504   24714720.7964
   2234659.08649   1741292.58846  21805454.5584   21805453.6884
 -14720982.61549 -11470887.63246  22183205.0604   22183204.7064
  -5564728.41948  -4336134.85844  24032019.3324   24032020.8654
  -1600992.51948  -1247525.63044  24012773.4904   24012774.1534
 -20976345.01049 -16345192.66647  20375611.6384   20375611.4904
 96  3 15  1 21 30.0000000  0  8G 5G20G 6G 4G 9G 7G16G24
 -19020530.78149 -14821185.50347  20869873.0594   20869872.4714
 -12196399.44849  -9503683.06345  22798935.6244   22798936.2684
    -70833.41148    -55194.17644  24701239.2094   24701240.9404
   2310160.52849   1800124.86846  21819822.1154   21819820.7794
 -14647925.32549 -11413959.88346  22197108.0114   22197107.3714
  -5494945.75848  -4281758.73145  24045299.0914   24045298.8664
  -1695255.04648  -1320976.88944  23994835.8004   23994835.8524
 -20969635.54149 -16339964.50247  20376888.6144   20376888.5074
 96  3 15  1 22  0.0000000  0  8G 5G20G 6G 4G 9G 7G16G24
 -19073328.95749 -14862326.93847  20859826.1174   20859825.5264
 -12288029.66349  -9575083.19846  22781499.0734   22781499.8254
   -141629.87048   -110360.26144  24687765.9204
   2385948.54249   1859180.45246  21834243.7454   21834242.7934
 -14574550.31849 -11356784.56646  22211071.3164   22211070.9284
  -5425145.65548  -4227369.06745  24058581.5174   24058581.1544
  -1789526.47448  -1394435.04644  23976897.8444   23976900.8544
 -20962444.70649 -16334361.25247  20378256.7994   20378256.8234
 96  3 15  1 22 30.0000000  0  8G 5G20G 6G 4G 9G 7G16G24
 -19125797.26749 -14903211.33247  20849841.7014   20849841.2024
 -12379531.53549  -9646383.34046  22764086.6494   22764086.5014
   -212407.50048   -165511.62444  24674297.4484
   2462014.01349   1918452.23846  21848718.7204   21848717.5654
 -14500879.21449 -11299378.51946  22225089.6814   22225089.2044
  -5355354.97748  -4172986.71044  24071861.0804   24071864.2264
  -1883827.34348  -1467916.16444  23958951.9534   23958955.5744
 -20954794.96849 -16328400.41347  20379712.2514   20379712.3034
 96  3 15  1 23  0.0000000  0  8G 5G20G 6G 4G 9G 7G16G24
 -19177894.92749 -14943806.90947  20839927.7074   20839927.4624
 -12470871.97149  -9717557.67646  22746705.6304   22746705.6964
   -283135.33148   -220624.23044  24660838.2394
   2538386.09449   1977962.94446  21863251.9004   21863251.0894
 -14426882.55049 -11241718.79346  22239169.7344   22239170.1064
  -5285532.79848  -4118579.85744  24085147.8254   24085148.3614
  -1978114.94848  -1541386.97044  23941010.3724   23941013.1644
 -20946645.77749 -16322050.39247  20381263.3434   20381263.3814
 96  3 15  1 23 30.0000000  0  8G 5G20G 6G 4G 9G 7G16G24
 -19229635.11549 -14984123.93747  20830082.0984   20830081.6804
 -12562063.27249  -9788615.81946  22729351.9844   22729351.5014
   -353835.70948   -275715.36844  24647385.5254   24647385.5864
   2615061.15849   2037709.73346  21877843.0124   21877841.9604
 -14352558.06349 -11183803.63146  22253313.9754   22253314.3594
  -5215667.07048  -4064139.10244  24098443.3854   24098445.3084
  -2072379.60748  -1614839.88644  23923072.5594   23923075.7374
 -20937984.06049 -16315301.00147  20382911.3124   20382911.4114
 96  3 15  1 24  0.0000000  0  8G 5G20G 6G 4G 9G 7G16G24
 -19281036.37049 -15024176.86547  20820301.0564   20820300.1854
 -12653125.15349  -9859573.11346  22712023.2214   22712023.6744
   -424506.02748   -330783.11244  24633939.2094   24633937.8954
   2692049.42249   2097700.57646  21892493.3164   21892492.4414
 -14277910.35549 -11125636.60646  22267519.2394   22267519.0314
  -5145760.60848  -4009666.52244  24111745.9434   24111746.2414
  -2166607.85848  -1688264.48144  23905140.5194   23905141.0614
 -20928805.46149 -16308148.84347  20384658.0914   20384658.3044
 96  3 15  1 24 30.0000000  0  8G 5G20G 6G 4G 9G 7G16G24
 -19332106.06049 -15063971.42747  20810582.2734   20810581.8284
 -12744049.05949  -9930422.90046  22694721.0624   22694721.5154
   -495132.13748   -385816.43244  24620498.4484   24620499.5344
   2769352.13049   2157936.43746  21907203.5904   21907202.3074
 -14202935.17349 -11067214.41046  22281785.9924   22281786.7094
  -5075811.97648  -3955161.07544  24125057.4814   24125060.1324
  -2260794.23648  -1761656.42444  23887217.6274   23887220.8514
 -20919106.25049 -16300591.01747  20386503.7544   20386503.7644
 96  3 15  1 25  0.0000000  0  8G 5G20G 6G 4G 9G 7G16G24
 -19382844.89449 -15103508.17847  20800927.0804   20800926.4994
 -12834828.03249 -10001159.72946  22677446.7724   22677447.1904
   -565715.74748   -440816.65344  24607065.9144   24607069.5154
   2846958.54149   2218408.96346  21921971.5014   21921970.1614
 -14127626.98749 -11008532.72846  22296116.3874   22296117.0454
  -5005821.42148  -3900622.91744  24138375.9354   24138374.4004
  -2354921.30348  -1835002.14745  23869305.8354   23869308.8864
 -20908874.16349 -16292617.96247  20388450.6504   20388450.9564
 96  3 15  1 25 30.0000000  0  8G 5G20G 6G 4G 9G 7G16G24
 -19433263.61249 -15142795.49247  20791332.9534   20791332.3944
 -12925473.92649 -10071792.89245  22660197.2344   22660196.8604
   -636266.23948   -495790.90444  24593641.0314   24593643.6934
   2924856.71949   2279108.83246  21936794.9364   21936794.4194
 -14052012.54349 -10949612.40246  22310506.0134   22310505.9334
  -4935811.46648  -3846069.71644  24151698.3264   24151696.8254
  -2449013.59148  -1908320.77045  23851400.9034   23851403.9424
 -20898136.30349 -16284250.79847  20390494.3604   20390494.5104
 96  3 15  1 26  0.0000000  0  8G 5G20G 6G 4G 9G 7G16G24
 -19483334.49849 -15181811.76747  20781804.8754   20781804.2384
 -13015961.15349 -10142302.41346  22642977.6554   22642978.6274
   -706763.68848   -550724.04844  24580226.3064   24580224.4004
   3003052.07349   2340040.26246  21951675.0404   21951674.3614
 -13976094.05849 -10890455.15846  22324953.1484   22324952.1864
  -4865786.07448  -3791504.45844  24165023.0184   24165025.7254
  -2543076.47948  -1981616.47744  23833500.9074   23833503.3814
 -20886907.08549 -16275500.76047  20392631.1464   20392631.2414
 96  3 15  1 26 30.0000000  0  8G 5G20G 6G 4G 9G 7G16G24
 -19533032.85749 -15220537.75847  20772347.3354   20772346.9154
 -13106269.28549 -10212672.34646  22625792.6014   22625793.4684
   -777213.41248   -605619.95444  24566819.8914   24566817.4304
   3081529.67449   2401191.63346  21966609.1904   21966608.4404
 -13899872.11049 -10831061.43846  22339457.8834   22339456.6254
  -4795752.94948  -3736933.21244  24178350.6264   24178349.9144
  -2637121.66648  -2054898.37144  23815604.3104   23815605.3334
 -20875203.14749 -16266380.80947  20394858.1814   20394858.3454
 96  3 15  1 27  0.0000000  0  8G 5G20G 6G 4G 9G 7G16G24
 -19582332.24949 -15258952.86647  20762965.8864   20762965.4374
 -13196387.61949 -10282894.40946  22608643.8074   22608643.5064
   -847620.29148   -660482.45344  24553421.8634   24553419.1224
   3160301.10549   2462571.96246  21981598.9074   21981598.3514
 -13823353.20949 -10771436.32546  22354018.8004   22354018.0494
  -4725696.69348  -3682343.96544  24191681.4314   24191685.0824
  -2731138.00248  -2128157.82944  23797714.2374   23797714.6614
 -20863020.60249 -16256887.91547  20397176.4654   20397176.7644
 96  3 15  1 27 30.0000000  0  8G 5G20G 6G 4G 9G 7G16G24
 -19631234.84849 -15297058.78747  20753660.1914   20753659.6174
 -13286308.51749 -10352962.62946  22591532.9844   22591533.2954
   -917977.98848   -715306.60444  24540032.9874   24540033.3724
   3239375.36649   2524188.25046  21996645.8644   21996644.4374
 -13746535.02649 -10711578.02446  22368636.0614   22368636.1064
  -4655609.63948  -3627730.73244  24205018.5604   24205019.8604
  -2825123.18848  -2201393.00745  23779829.3224   23779830.1244
 -20850367.40949 -16247028.28547  20399584.2864   20399584.4084
 96  3 15  1 28  0.0000000  0  8G 5G20G 6G 4G 9G 7G16G24
 -19679742.07049 -15334856.61347  20744429.6274   20744429.0834
 -13376017.26649 -10422865.54746  22574462.4154   22574461.9114
   -988291.23848   -770096.08445  24526653.6194   24526655.9874
   3318757.26149   2586044.26446  22011751.5014   22011750.6254
 -13669406.14149 -10651477.62146  22383313.5644   22383313.7554
  -4585487.27948  -3573089.93144  24218363.0914   24218365.3324
  -2919056.57548  -2274587.79145  23761954.4924   23761956.0124
 -20837243.34949 -16236801.74247  20402081.7034   20402081.7234
 96  3 15  1 28 30.0000000  0  8G 5G20G 6G 4G 9G 7G16G24
 -19727872.59049 -15372360.91147  20735270.6794   20735270.0514
 -13465516.49549 -10492605.19346  22557430.7064   22557431.0174
  -1058576.92048   -824864.11544  24513278.8294   24513277.8364
   3398427.59249   2648125.03246  22026912.3174   22026911.9344
 -13591988.97749 -10591152.59246  22398045.5944   22398046.2924
  -4515328.26348  -3518420.54944  24231713.5954   24231714.2444
  -3012930.38348  -2347736.18045  23744090.5724   23744092.3694
 -20823650.16749 -16226209.65147  20404668.3794   20404668.4684
 96  3 15  1 29  0.0000000  0  8G 5G20G 6G 4G 9G 7G16G24
 -19775642.72249 -15409584.39347  20726180.3394   20726180.0384
 -13554812.83849 -10562186.74546  22540437.5184   22540438.2824
  -1128816.72648   -879596.45244  24499912.5014   24499911.4274
   3478386.31749   2710430.52646  22042128.1744   22042127.4304
 -13514282.39249 -10530602.03346  22412832.6804   22412832.9964
  -4445119.50348  -3463712.38344  24245073.9034   24245073.4064
  -3106718.86148  -2420818.05645  23726243.6044   23726244.9534
 -20809569.42149 -16215237.63847  20407347.8104   20407348.0054
 96  3 15  1 29 30.0000000  0  8G 5G20G 6G 4G 9G 7G16G24
 -19823081.33949 -15446549.54747  20717152.9984   20717152.6294
 -13643921.80349 -10631622.28646  22523480.4134   22523480.7354
  -1199017.99448   -934298.69344  24486553.1424   24486554.6774
   3558605.23249   2772938.76546  22057393.4034   22057392.4044
 -13436297.52549 -10469834.61546  22427673.2884   22427672.8894
  -4374890.24648  -3408988.23244  24258438.7034
  -3200436.31148  -2493844.59144  23708409.2374   23708412.1304
 -20795017.58149 -16203898.53947  20410117.0014   20410117.1664
 96  3 15  1 30  0.0000000  0  8G 5G20G 6G 4G 9G 7G16G24
 -19870178.37349 -15483248.53347  20708190.6814   20708190.0924
 -13732851.58849 -10700918.19946  22506557.8324   22506557.7854
  -1269201.16548   -988986.81344  24473197.1334   24473198.7534
   3639066.17649   2835635.59846  22072704.4444   22072703.8924
 -13358050.65649 -10408863.04346  22442562.9534   22442561.9684
  -4304652.02448  -3354257.16344  24271803.0564
  -3294099.73448  -2566829.06345  23690585.8784   23690586.0404
 -20779987.71749 -16192186.95547  20412977.0674   20412977.3414
 96  3 15  1 30 30.0000000  0  8G 5G20G 6G 4G 9G 7G16G24
 -19916917.42949 -15519668.57547  20699296.6234   20699295.9664
 -13821617.48149 -10770086.40446  22489667.0844   22489667.4734
  -1339351.03148  -1043648.97944  24459848.4204   24459848.5004
   3719769.41849   2898521.22746  22088061.9474   22088061.8354
 -13279539.92949 -10347685.86146  22457503.1444   22457502.6404
  -4234404.01748  -3299518.38844  24285170.5714   24285172.8214
  -3387707.36248  -2639770.00645  23672772.8454   23672772.9514
 -20764457.86849 -16180085.77147  20415932.2654   20415932.5004
 96  3 15  1 31  0.0000000  0  8G 5G20G 6G 4G 9G 7G16G24
 -19963293.03549 -15555805.40947  20690471.6604   20690471.3614
 -13910236.12049 -10839139.86346  22472803.4464   22472803.5904
  -1409461.15448  -1098280.17144  24446507.3414   24446507.2694
   3800735.84549   2961611.94146  22103469.3294   22103468.7624
 -13200755.13549 -10286295.12646  22472495.4374   22472495.5274
  -4164152.87748  -3244777.27044  24298539.0444
  -3481268.76748  -2712674.96245  23654968.7584   23654970.4354
 -20748420.53349 -16167589.14447  20418983.7794   20418984.1464
 96  3 15  1 31 30.0000000  0  8G 5G20G 6G 4G 9G 7G16G24
 -20009285.85849 -15591643.97247  20681719.5774   20681719.1034
 -13998693.07449 -10908067.33246  22455970.6124   22455970.5514
  -1479554.32848  -1152898.13744  24433168.1984   24433167.5884
   3881966.30549   3024908.39846  22118926.9324   22118926.0324
 -13121700.29649 -10224693.97346  22487538.5624   22487539.1384
  -4093904.97048  -3190038.70844  24311907.8594   24311907.2344
  -3574805.91148  -2785560.99445  23637169.0414   23637170.6294
 -20731883.02649 -16154702.77347  20422131.1254   20422131.1364
 96  3 15  1 32  0.0000000  0  8G 5G20G 6G 4G 9G 7G16G24
 -20054864.65949 -15627159.92347  20673046.3234   20673045.8144
 -14086968.68549 -10976853.50846  22439172.5794   22439173.0724
  -1549609.22248  -1207486.35644  24419837.4474   24419837.4174
   3963479.65749   3088425.29446  22134438.4714   22134437.9694
 -13042357.81349 -10162868.68246  22502636.2064   22502637.2714
  -4023623.14148  -3135273.63644  24325282.0924
  -3668292.89248  -2858407.90545  23619378.7644   23619379.3174
 -20714835.45649 -16141418.95047  20425375.1164   20425375.1514
 96  3 15  1 32 30.0000000  0  8G 5G20G 6G 4G 9G 7G16G24
 -20100021.61249 -15662347.14947  20664452.8174   20664452.4104
 -14175038.65249 -11045479.43846  22422412.8534   22422413.4064
  -1619589.72448  -1262016.58344  24406520.5174   24406521.1794
   4045300.70749   3152181.94446  22150008.7214   22150007.9054
 -12962713.79849 -10100808.43346  22517791.8284   22517793.2984
  -3953279.91448  -3080460.74044  24338668.2984
  -3761694.38448  -2931188.25145  23601604.5694   23601605.9404
 -20697279.62049 -16127739.07447  20428716.0364   20428716.1034
 96  3 15  1 33  0.0000000  0  8G 5G20G 6G 4G 9G 7G16G24
 -20144788.88749 -15697230.74047  20655934.0524   20655933.4844
 -14262910.95549 -11113951.33346  22405690.7384   22405691.2194
  -1689541.82948  -1316524.66745  24393208.6234   24393209.5504
   4127386.54449   3216144.92846  22165628.5854   22165627.8604
 -12882805.70549 -10038542.40746  22532998.6514   22532998.6644
  -3882893.97648  -3025614.50744  24352062.6234   24352063.3834
  -3855037.71948  -3003923.28045  23583842.7094   23583844.1384
 -20679272.54149 -16113707.58247  20432142.6134   20432142.7504
 96  3 15  1 33 30.0000000  0  8G 5G20G 6G 4G 9G 7G16G24
 -20189120.97949 -15731775.22847  20647497.8964   20647497.5884
 -14350525.88049 -11182222.69146  22389018.3454   22389018.5704
  -1759423.71448  -1370978.03245  24379911.2014   24379913.1824
   4209750.11749   3280324.32246  22181301.9214   22181302.2134
 -12802591.95549  -9976038.20246  22548263.7004   22548263.3044
  -3812424.95048                  24365471.1234
  -3948263.96048  -3076567.07645  23566102.8294   23566102.7014
 -20660798.78849 -16099312.45047  20435658.0414   20435658.1584
 96  3 15  1 34  0.0000000  0  8G 5G20G 6G 4G 9G 7G16G24
 -20233034.82449 -15765993.80647  20639141.4414   20639140.9274
 -14437903.01249 -11250308.75946  22372391.2834   22372391.1354
  -1829220.90848  -1425365.42944  24366629.3364   24366629.5564
   4292381.10549   3344712.09146  22197026.1374   22197025.6294
 -12722086.67149  -9913306.82346  22563583.6364   22563582.7624
  -3741877.17548                  24378895.2204
  -4041355.02848  -3149105.51545  23548387.1804   23548387.8454
 -20641866.79749 -16084560.24747  20439260.6694   20439260.6904
 96  3 15  1 34 30.0000000  0  8G 5G20G 6G 4G 9G 7G16G24
 -20276598.93649 -15799939.86947  20630851.3974   20630850.9434
 -14525102.16849 -11318256.13946  22355797.8674   22355797.8814
  -1899003.23248  -1479741.24444  24353349.6834   24353348.9424
   4375217.97149   3409260.29046  22212788.9034   22212789.3844
 -12641354.93149  -9850398.98746  22578945.9554   22578945.4794
  -3671334.81648                  24392320.5464
  -4134387.79248  -3221598.55545  23530684.4174   23530684.7624
 -20622524.07149 -16069487.99747  20442941.2284   20442941.4554
 96  3 15  1 35  0.0000000  0  8G 5G20G 6G 4G 9G 7G16G24
 -20319785.12549 -15833591.44547  20622633.4934   20622632.9144
 -14612100.55049 -11386047.05646  22339242.5944   22339242.8244
  -1968749.20148  -1534088.71144  24340077.9004   24340076.8894
   4458278.17549   3473982.51346  22228595.6604   22228595.2324
 -12560373.48649  -9787296.57246  22594355.8134   22594355.7534
  -3600785.45248                  24405744.9364
  -4227341.76848  -3294030.16045  23512995.7104   23512996.3424
 -20602741.56249 -16054073.05147  20446706.0434   20446706.1144
 96  3 15  1 35 30.0000000  0  8G 5G20G 6G 4G 9G 7G16G24
 -20362556.91049 -15866920.11447  20614494.3674   20614493.7324
 -14698879.25649 -11453666.80046  22322729.3264   22322729.8864
  -2038420.37948  -1588377.90645  24326819.8054   24326818.8644
   4541599.75449   3538908.42146  22244450.7734   22244450.3564
 -12479111.70549  -9723975.72846  22609818.6984   22609819.1744
  -3530215.39148                  24419174.7244
  -4320195.06048  -3366383.35545  23495325.5604   23495326.0334
 -20582467.18649 -16038274.83947  20450564.1544   20450564.2554
 96  3 15  1 36  0.0000000  0  8G 5G20G 6G 4G 9G 7G16G24
 -20404951.18349 -15899954.61347  20606426.8994   20606426.3734
 -14785480.14549 -11521147.99346  22306249.5404   22306249.3974
  -2108056.46648  -1642639.82644  24313568.6604   24313569.3084
   4625163.31849   3604022.87946  22260352.9234   22260352.2344
 -12397621.89549  -9660477.21046  22625325.9994   22625327.0174
  -3459649.57648                  24432603.4034
  -4412996.90548  -3438696.45945  23477666.3044   23477667.3154
 -20561710.37849 -16022100.70147  20454513.9234   20454513.9724
 96  3 15  1 36 30.0000000  0  8G 5G20G 6G 4G 9G 7G16G24
 -20446944.70849 -15932676.83747  20598435.9354   20598435.3954
 -14871863.77049 -11588459.90046  22289811.3454   22289812.0434
  -2177650.82348  -1696869.09845  24300325.2144   24300326.5164
   4708977.14949   3669332.34846  22276301.5294   22276301.2254
 -12315880.08049  -9596782.32046  22640881.7074   22640881.6054
  -3389071.94748                  24446031.9504
  -4505730.38648  -3510956.26945  23460019.5864   23460020.6734
 -20540458.75249 -16005540.99047  20458558.0444   20458557.9994
 96  3 15  1 37  0.0000000  0  8G 5G20G 6G 4G 9G 7G16G24
 -20488524.02349 -15965076.30147  20590523.4464   20590523.1434
 -14958020.97249 -11655595.36146  22273416.1204   22273416.2564
  -2247195.76048  -1751059.90944  24287090.4504   24287090.9424
   4793038.75549   3734834.88446  22292298.0674   22292297.8274
 -12233885.14849  -9532890.19046  22656485.1194   22656484.7764
  -3318461.30748                  24459469.7774
  -4598365.07848  -3583139.11645  23442392.3904   23442394.1894
 -20518713.96849 -15988597.00347  20462695.9014   20462696.0174
 96  3 15  1 37 30.0000000  0  8G 5G20G 6G 4G 9G 7G16G24
 -20529699.24449 -15997160.88947  20582688.2194   20582687.6574
 -15043959.52049 -11722560.44946  22257063.0254   22257063.5384
  -2316704.57448  -1805222.62744  24273862.9534   24273866.8504
   4877330.65249   3800516.87946  22308338.1344   22308337.2864
 -12151654.26149  -9468814.18646  22672132.8204   22672132.2504
  -3247817.80648                  24472912.8534
  -4690901.72348  -3655245.57145  23424782.8274   23424782.8044
 -20496486.48349 -15971276.88347  20466925.6894   20466925.6104
 96  3 15  1 38  0.0000000  0  8G 5G20G 6G 4G 9G 7G16G24
 -20570468.66149 -16028929.26947  20574930.0024   20574929.4144
 -15129659.85449 -11789339.91746  22240754.1844   22240754.2054
  -2386175.49048  -1859355.79144  24260643.4324   24260646.4624
   4961854.53649   3866379.62846  22324422.6434   22324422.1394
 -12069185.86549  -9404553.11246  22687825.9744   22687825.8094
  -3177118.30248                  24486365.2664
  -4783309.13848  -3727251.30645  23407198.8454   23407200.7604
 -20473784.71449 -15953587.19047  20471245.5964   20471245.4954
 96  3 15  1 38 30.0000000  0  8G 5G20G 6G 4G 9G 7G16G24
 -20610817.23949 -16060369.71347  20567251.9794   20567251.4054
 -15215105.65549 -11855921.03946  22224494.3364   22224494.7294
  -2455602.28148  -1913454.57845  24247432.0374   24247432.8154
   5046615.23949   3932426.92446  22340552.2484   22340551.9364
 -11986466.07249  -9340096.15446  22703566.1184   22703567.2334
  -3106357.07948                  24499831.6304
  -4875557.44148  -3799133.08645  23389644.6934   23389646.2284
 -20450616.18449 -15935533.78647  20475654.4994   20475654.8164
 96  3 15  1 39  0.0000000  0  8G 5G20G 6G 4G 9G 7G16G24
 -20650755.73049 -16091490.61747  20559651.7434   20559651.1994
 -15300325.15249 -11922325.83546  22208277.6624   22208278.1924
  -2525007.27548  -1967536.32644  24234223.9274   24234224.5384
   5131613.96449   3998659.69246  22356727.0904   22356725.5954
 -11903522.02549  -9275464.44746  22719349.4824   22719351.0374
  -3035536.95148                  24513308.4564
  -4967662.30148  -3870903.08545  23372117.5164   23372118.0214
 -20426994.54249 -15917127.31247  20480149.4494   20480149.6614
 96  3 15  1 39 30.0000000  0  8G 5G20G 6G 4G 9G 7G16G24
 -20690298.08249 -16122302.83547  20552127.0444   20552126.6324
 -15385322.19449 -11988557.27746  22192102.9844   22192103.4904
  -2594400.97448  -2021609.30644  24221018.3794   24221018.8354
   5216841.92049   4065071.07546  22372945.4874   22372944.0354
 -11820368.80149  -9210669.74646  22735173.1654   22735173.9494
  -2964661.59548                  24526795.9174
  -5059635.25148  -3942570.27545  23354615.0974   23354615.6264
 -20402933.51349 -15898378.45747  20484728.2154   20484728.2994
 96  3 15  1 40  0.0000000  0  8G 5G20G 6G 4G 9G 7G16G24
 -20729444.52549 -16152806.55147  20544677.9964   20544677.5164
 -15470094.34149 -12054613.49046  22175971.8744   22175971.8244
  -2663779.62948  -2075670.53245  24207816.8444   24207818.9664
   5302289.52249   4131653.61446  22389205.7094   22389204.9574
 -11737005.44649  -9145711.30446  22751038.1594   22751037.7954
  -2893740.69048                  24540290.8844
  -5151483.91948  -4014140.65745  23337136.7094   23337137.4544
 -20378437.52649 -15879290.67347  20489389.5464   20489389.5164
 96  3 15  1 40 30.0000000  0  8G 5G20G 6G 4G 9G 7G16G24
 -20768195.46049 -16183002.08347  20537303.7294   20537303.2994
 -15554642.66049 -12120495.29746  22159882.7514   22159883.1304
  -2733136.43948  -2129714.77145  24194618.7134   24194620.6204
   5387947.91249   4198400.38946  22405506.0034   22405505.4134
 -11653434.98349  -9080591.47946  22766940.9334   22766940.5904
  -2822792.58747                  24553792.0954
  -5243220.39248  -4085623.58645  23319679.7274   23319681.3934
 -20353510.57549 -15859867.07047  20494133.0604   20494133.1294
 96  3 15  1 41  0.0000000  0  8G 5G20G 6G 4G 9G 7G16G24
 -20806530.18649 -16212873.29447  20530009.0334   20530008.5054
 -15638946.01149 -12186186.20046  22143840.5244   22143840.8774
  -2802449.30948  -2183724.78045  24181428.7244   24181429.9724
   5473816.16249   4265310.70146  22421846.3334   22421845.6614
 -11569640.07749  -9015296.76646  22782886.5544   22782886.2124
  -2751806.47347                  24567301.6754
  -5334836.72748  -4157012.90045  23302246.4754   23302247.6034
 -20328143.99849 -15840100.90647  20498960.2394   20498960.2564
 96  3 15  1 41 30.0000000  0  8G 5G20G 6G 4G 9G 7G16G24
 -20844443.86049 -16242416.41547  20522794.2274   20522793.7424
 -15722997.65949 -12251680.98346  22127845.7424   22127846.1394
  -2871699.96648  -2237686.28045  24168251.5294   24168251.7314
   5559877.70949   4332371.63346  22438222.3894   22438222.5864
 -11485616.07649  -8949823.54546  22798875.9044   22798875.9814
  -2680800.36747                  24580812.5994
  -5426331.79448  -4228307.74245  23284835.1714   23284836.5964
 -20302342.60149 -15819995.92047  20503869.9484   20503870.1644
 96  3 15  1 42  0.0000000  0  8G 5G20G 6G 4G 9G 7G16G24
 -20881930.70249 -16271626.94247  20515660.8304   20515660.2834
 -15806794.64549 -12316977.31746  22111899.5384   22111900.1644
  -2940887.01948  -2291598.25245  24155084.9344   24155085.9114
   5646133.23749   4399583.73746  22454636.6144   22454636.1694
 -11401366.51549  -8884174.55046  22814908.3954   22814907.8574
  -2609796.61748                  24594323.9854
  -5517714.33748  -4299514.87345  23267445.8924   23267446.5684
 -20276111.45949 -15799556.07047  20508861.4774   20508861.7524
 96  3 15  1 42 30.0000000  0  8G 5G20G 6G 4G 9G 7G16G24
 -20918981.37149 -16300497.59347  20508610.3214   20508609.8184
 -15890330.26149 -12382069.99546  22096003.6154   22096003.1924
  -3010016.89148  -2345465.62045  24141929.6664   24141931.6234
   5732598.01849   4466958.87846  22471089.8014   22471090.1344
 -11316900.00549  -8818356.50446  22830980.8974   22830980.4824
  -2538792.03348                  24607836.3504
  -5608969.81548  -4370623.00445  23250080.1584   23250081.6504
 -20249446.83149 -15778778.44047  20513935.6094   20513935.7064
 96  3 15  1 43  0.0000000  0  8G 5G20G 6G 4G 9G 7G16G24
 -20955597.65849 -16329029.75847  20501642.3924   20501641.9554
 -15973613.72349 -12446966.19546  22080155.8314   22080155.4504
  -3079087.70548  -2399287.03245  24128786.1844   24128789.0124
   5819271.77949   4534496.87146  22487583.4034   22487582.9154
 -11232224.34649  -8752375.47946  22847094.1374   22847093.9704
  -2467778.43848                  24621349.0664
  -5700089.44748  -4441625.29145  23232739.8774   23232742.2024
 -20222343.01449 -15757658.58347  20519093.4334   20519093.5904
 96  3 15  1 43 30.0000000  0  8G 5G20G 6G 4G 9G 7G16G24
 -20991805.23849 -16357243.45847  20494752.2084   20494751.7774
 -16056671.25349 -12511686.33146  22064349.7034   22064349.3734
  -3148120.81448  -2453079.04644  24115649.8494   24115651.8694
   5906133.35049   4602181.20546  22504112.8654   22504111.7374
 -11147365.67849  -8686251.84646  22863242.3364   22863241.6894
  -2396784.31448                  24634859.3754
  -5791092.87948  -4512537.01645  23215422.6844   23215425.0704
 -20194814.05649 -15736207.44647  20524331.8004   20524332.0634
 96  3 15  1 44  0.0000000  0  7G 5G20G 6G 4G 9G16G24
 -21027598.83849 -16385134.56947  20487941.0164   20487940.5594
 -16139488.98149 -12576219.60746  22048589.7194   22048590.2654
  -3217127.67548  -2506850.57045  24102516.9224   24102518.0684
   5993185.35449   4670013.92846  22520678.6914   22520678.1324
 -11062321.65449  -8619983.78846  22879425.3814   22879425.7374
  -5881969.39648  -4583349.83745  23198130.1224   23198131.7384
 -20166860.36749 -15714425.34947  20529651.4564   20529651.6644
 96  3 15  1 44 30.0000000  0  7G 5G20G 6G 4G 9G16G24
 -21062982.17749 -16412705.99847  20481207.7504   20481207.1544
 -16222091.87649 -12640585.48246  22032871.1694   22032871.7134
  -3286129.95948  -2560618.55645  24089386.9054   24089388.1704
   6080409.12949   4737980.50046  22537277.1984   22537276.0754
 -10977101.75049  -8553578.69046  22895642.9924   22895643.5764
  -5972722.73148  -4654066.67045  23180860.4924   23180861.9484
 -20138487.69549 -15692316.77047  20535050.6234   20535050.4964
 96  3 15  1 45  0.0000000  0  8G 5G20G 6G 4G 9G 7G16G24
 -21097910.38549 -16439922.78547  20474561.1994   20474560.6464
 -16304438.14349 -12704751.39846  22017201.3934   22017201.4864
  -3355084.14548  -2614349.09444  24076265.4894   24076266.4094
   6167838.54749   4806107.31546  22553914.1814   22553913.3734
 -10891654.25049  -8486996.24746  22911903.3414   22911903.5994
        -0.68758                  24675394.4084
  -6063323.70948  -4724664.78045  23163619.5844   23163621.4044
 -20109657.12449 -15669851.39047  20540536.6084   20540536.8034
 96  3 15  1 45 30.0000000  0  8G 5G20G 6G 4G 9G 7G16G24
 -21132376.10949 -16466779.19247  20468002.5024   20468002.1414
 -16386512.03149 -12768705.06946  22001583.1984   22001583.5464
  -3424012.56948  -2668059.50645  24063149.1774   24063151.2904
   6255473.94049   4874394.62546  22570590.7934   22570590.2514
 -10805988.05249  -8420243.38246  22928204.4974   22928204.9614
     71097.92348                  24688921.7444
  -6153775.01248  -4795146.25645  23146406.7354   23146407.1784
 -20080368.58749 -15647029.15147  20546110.1154   20546110.4024
 96  3 15  1 46  0.0000000  0  8G 5G20G 6G 4G 9G 7G16G24
 -21166401.66449 -16493292.61447  20461527.6944   20461527.0574
 -16468332.34549 -12832461.12846  21986012.8984   21986013.2374
  -3492944.50448  -2721772.67345  24050032.4964   24050033.0464
   6343304.86449   4942834.29646  22587303.8824   22587303.5644
 -10720143.81349  -8353351.79646  22944539.9094   22944540.6934
    142244.83748                  24702461.6514
  -6244085.38848  -4865517.93545  23129221.9064   23129222.4544
 -20050642.77949 -15623866.18247  20551766.8684   20551766.9014
 96  3 15  1 46 30.0000000  0  8G 5G20G 6G 4G 9G 7G16G24
 -21199974.31349 -16519453.11847  20455138.8494   20455138.4614
 -16549878.81049 -12896003.81346  21970495.5524   21970495.2334
  -3561846.38748  -2775462.43345  24036920.7774   24036921.1074
   6431359.71449   5011448.45546  22604060.5294   22604060.0874
 -10634100.37949  -8286304.98846  22960913.9394   22960914.3554
    213465.37847                  24716014.4674
  -6334226.90748  -4935758.03445  23112068.0874   23112068.9744
 -20020448.36949 -15600338.06847  20557512.6004   20557512.5754
 96  3 15  1 47  0.0000000  0  8G 5G20G 6G 4G 9G 7G16G24
 -21233092.81349 -16545259.73447  20448836.7604   20448836.1964
 -16631109.05649 -12959300.09346  21955037.6604   21955037.6024
  -3630701.83148  -2829115.96045  24023817.7994   24023820.9534
   6519649.19649   5080245.44646  22620861.6744   22620860.6994
 -10547849.50749  -8219096.53146  22977326.4434   22977326.2374
    284766.41647                  24729583.6034
  -6424171.63048  -5005844.77145  23094951.7194   23094952.5724
 -19989786.16449 -15576445.43547  20563347.4794   20563347.4914
 96  3 15  1 47 30.0000000  0  7G 5G20G 6G 4G 9G16G24
 -21265786.29149 -16570735.16847  20442615.4354   20442614.9234
 -16712041.17249 -13022364.06346  21939637.2824   21939637.5404
  -3699527.42148  -2882746.24945  24010721.1324   24010720.6154
   6608152.42549   5149209.00046  22637703.0864   22637703.2964
 -10461421.98549  -8151750.41746  22993773.6874   22993773.1274
  -6513912.84748  -5075772.95545  23077874.4474   23077876.0304
 -19958690.44549 -15552215.00547  20569264.8274   20569265.1384
 96  3 15  1 48  0.0000000  0  7G 5G20G 6G 4G 9G16G24
 -21298064.51249 -16595887.02447  20436473.0794   20436472.6554
 -16792702.79149 -13085217.26246  21924288.0224   21924288.5494
  -3768306.65948  -2936340.45745  23997633.0834   23997633.5844
   6696851.13049   5218324.85546  22654581.5704   22654580.9334
 -10374817.43849  -8084266.36646  23010253.6904   23010253.1174
  -6603462.30648  -5145551.70245  23060834.4984   23060834.9074
 -19927182.00249 -15527662.97047  20575260.7714   20575260.5834
 96  3 15  1 48 30.0000000  0  7G 5G20G 6G 4G 9G16G24
 -21329903.55149 -16620696.66247  20430414.1444   20430413.6084
 -16873079.68849 -13147848.59446  21908992.2194   21908992.2654
  -3837020.73948  -2989883.88145  23984556.5884   23984557.0654
   6785748.93149   5287595.86146  22671498.2724   22671498.1344
 -10288002.92949  -8016618.71146  23026774.3264   23026775.0424
  -6692813.30448  -5215175.80745  23043830.5834   23043832.8844
 -19895248.87349 -15502780.00847  20581337.2034   20581337.4734
 96  3 15  1 49  0.0000000  0  8G 5G20G 6G 4G 9G 7G16G24
 -21361309.88049 -16645169.12847  20424437.9814   20424437.3544
 -16953205.43549 -13210284.21546  21893744.8554   21893745.2004
  -3905696.27448  -3043397.25745  23971486.9694   23971488.5814
   6874807.61049   5356992.23846  22688445.9824   22688445.2684
 -10201013.17749  -7948834.51246  23043327.2874   23043328.0754
        -1.13257                  24783926.7014
  -6781988.21948  -5284662.71745  23026861.1444   23026862.6014
 -19862923.28549 -15477591.24147  20587488.4264   20587488.5824
 96  3 15  1 49 30.0000000  0  8G 5G20G 6G 4G 9G 7G16G24
 -21392294.65849 -16669313.11147  20418541.6614   20418540.9514
 -17033134.73549 -13272566.77746  21878534.8084   21878534.7834
  -3974348.12848  -3096892.16545  23958423.3094   23958425.6894
   6963989.28749   5426484.45546  22705416.3604   22705416.0554
 -10113881.99548  -7880940.10746  23059907.6864   23059908.7734
     71477.93447                  24797530.2364
  -6871033.34048  -5354048.48945  23009916.6144   23009917.6804
 -19830224.12249 -15452111.36947  20593711.0814   20593711.0924
 96  3 15  1 50  0.0000000  0  8G 5G20G 6G 4G 9G 7G16G24
 -21422816.13449 -16693096.08547  20412733.7524   20412733.2824
 -17112841.39149 -13334675.84846  21863366.8904   21863367.2874
  -4042959.34848  -3150355.42045  23945367.1364   23945370.2094
   7053310.29449   5496085.23546  22722414.3244   22722413.6834
 -10026591.16648  -7812921.31146  23076518.5124   23076519.5564
    143001.13547                  24811140.3514
  -6959937.28348  -5423324.25745  22992999.7854   22993001.0454
 -19797120.26849 -15426316.15947  20600010.6644   20600010.7854
 96  3 15  1 50 30.0000000  0  8G 5G20G 6G 4G 9G 7G16G24
 -21452860.40149 -16716507.20347  20407016.5144   20407016.1024
 -17192277.28149 -13396573.92946  21848250.8924   21848250.9544
  -4111533.85548  -3203790.06945  23932317.9354   23932319.5394
   7142779.18649   5565801.26146  22739439.4934   22739439.1074
  -9939140.99749  -7744778.34246  23093160.1954   23093161.0604
    214580.33848                  24824762.1244
  -7048670.71848  -5492467.14645  22976113.5194   22976114.6764
 -19763597.80149 -15400194.75747  20606389.7464   20606389.8444
 96  3 15  1 51  0.0000000  0  8G 5G20G 6G 4G 9G 7G16G24
 -21482433.86849 -16739551.46747  20401388.8154   20401388.1814
 -17271432.47849 -13458253.29346  21833188.1694   21833188.6864
  -4180078.09448  -3257201.12745  23919274.2294   23919274.7954
   7232387.08349   5635625.58946  22756491.1574   22756491.6744
  -9851551.29249  -7676526.63446  23109828.4114   23109827.4254
    286182.72548                  24838386.9364
  -7137228.62148  -5561473.28345  22959261.7664   22959263.4194
 -19729665.18749 -15373753.75647  20612846.9634   20612847.1194
 96  3 15  1 51 30.0000000  0  8G 5G20G 6G 4G 9G 7G16G24
 -21511525.85049 -16762220.54347  20395852.7994   20395852.2394
 -17350260.84349 -13519677.98546  21818187.7874   21818188.0734
  -4248579.32748  -3310578.69345  23906239.0184   23906241.7604
   7322166.02549   5705583.18946  22773576.1154   22773575.6744
  -9763800.87748  -7608149.69746  23126526.1494   23126525.7404
    357806.22548                  24852016.3914
  -7225593.37448  -5630328.90445  22942446.6394   22942448.3784
 -19695304.09849 -15346978.88247  20619385.5794   20619385.9294
 96  3 15  1 52  0.0000000  0  8G 5G20G 6G 4G 9G 7G16G24
 -21540154.55349 -16784528.61747  20390404.7444   20390404.2384
 -17428737.49049 -13580828.60346  21803254.1614   21803254.3624
  -4317058.69948  -3363939.20345  23893208.4324   23893209.8704
   7412126.33649   5775682.12746  22790694.8924   22790693.9224
  -9675887.25449  -7539645.59646  23143256.3274   23143256.0674
    429438.55547                  24865647.1374
  -7313746.81848  -5699019.87745  22925670.9194   22925672.1704
 -19660514.46949 -15319870.07747  20626005.6824   20626005.9914
 96  3 15  1 52 30.0000000  0  8G 5G20G 6G 4G 9G 7G16G24
 -21568311.89549 -16806469.40247  20385046.6804   20385046.0164
 -17506840.58349 -13641688.14446  21788392.0024   21788392.2144
  -4385501.64248  -3417271.32945  23880183.8704   23880185.6534
   7502290.87349   5845940.19346  22807852.2904   22807851.4644
  -9587789.03049  -7470997.65345  23160020.7984   23160020.6924
    501097.05447                  24879283.2324
  -7401665.42648  -5767527.83945  22908940.4614   22908941.3594
 -19625273.66849 -15292409.71147  20632711.8804   20632712.2144
 96  3 15  1 53  0.0000000  0  8G 5G20G 6G 4G 9G 7G16G24
 -21596007.80549 -16828050.63047  20379776.3844   20379775.8974
 -17584607.59849 -13702285.80446  21773593.2784   21773593.2274
  -4453922.14548  -3470585.98945  23867163.5914   23867164.0204
   7592654.50749   5916353.41446  22825048.2194   22825046.7264
  -9499523.25348  -7402219.13445  23176816.7704   23176816.1694
    572763.54548                  24892921.7174
  -7489374.36448  -5835872.43345  22892250.1244   22892250.9824
 -19589606.11949 -15264616.81947  20639499.4174   20639499.2004
 96  3 15  1 53 30.0000000  0  8G20G 5G 6G 4G 9G 7G16G24
 -17662064.17449 -13762641.56446  21758853.7534   21758853.7964
 -21623247.95049 -16849276.71547  20374592.7924   20374592.1954
  -4522335.76748  -3523895.25145  23854144.1824   23854145.2034
   7683206.18849   5986913.15446  22842279.3404   22842278.0974
  -9411101.96748  -7333319.44945  23193643.0994   23193643.1344
    644448.88248                  24906562.7544
  -7576877.46748  -5904056.62645  22875598.8454   22875599.4684
 -19553531.88349 -15236507.02047  20646363.9144   20646363.8994
 96  3 15  1 54  0.0000000  0  8G20G 5G 6G 4G 9G 7G16G24
 -17739222.39549 -13822764.83846  21744170.5774   21744171.1624
 -21650015.51649 -16870134.55647  20369498.9314   20369498.5984
  -4590726.09148  -3577186.36245  23841130.6574   23841132.0304
   7773944.12349   6057618.02146  22859545.9944   22859545.1864
  -9322532.96148  -7264304.67546  23210497.2364   23210496.9194
    716178.66248                  24920212.8314
  -7664158.60948  -5972067.87245  22858990.6234   22858991.0964
 -19517052.42349 -15208081.46847  20653305.7104   20653306.0064
 96  3 15  1 54 30.0000000  0  8G20G 5G 6G 4G 9G 7G16G24
 -17816116.82249 -13882682.55646  21729537.7614   21729538.1614
 -21676304.61049 -16890619.55947  20364496.3574   20364495.7874
  -4659089.36848  -3630456.41745  23828122.1134   23828121.9514
   7864834.31249   6128441.54446  22876842.0984   22876840.9194
  -9233850.85848  -7195201.75045  23227372.9464   23227372.9504
    787954.51048                  24933870.8984
  -7751231.27948  -6039916.66945  22842420.2654   22842421.5154
 -19480195.56849 -15179361.84247  20660319.2104   20660319.3564
 96  3 15  1 55  0.0000000  0  8G20G 5G 6G 4G 9G 7G16G24
 -17892763.16549 -13942406.97046  21714952.7944   21714952.8504
 -21702116.77749 -16910732.93547  20359584.5084   20359583.9614
  -4727420.88448  -3683701.72745  23815118.2724   23815120.0214
   7955850.39149   6199363.16246  22894161.4074   22894160.6894
  -9145070.20948  -7126022.04645  23244267.0724   23244267.5314
    859776.98547                  24947537.5944
  -7838103.64248  -6107609.38945  22825889.0254   22825890.6994
 -19442983.29449 -15150365.26447  20667400.4794   20667400.7494
 96  3 15  1 55 30.0000000  0  8G20G 5G 6G 4G 9G 7G16G24
 -17969129.09349 -14001912.87546  21700420.8984   21700421.1374
 -21727438.38949 -16930464.05747  20354766.0034   20354765.5764
  -4795690.01548  -3736898.40445  23802127.3694   23802128.4204
   8046995.77149   6270385.53146  22911505.3764   22911505.4834
  -9056160.11648  -7056741.47645  23261185.9364   23261186.2914
    931672.42547                  24961219.1304
  -7924751.70648  -6175127.32645  22809400.6664   22809402.0934
 -19405372.55749 -15121058.19947  20674557.6114   20674557.7054
 96  3 15  1 56  0.0000000  0  8G20G 5G 6G 4G 9G 7G16G24
 -18045195.34649 -14061185.25746  21685945.8954   21685946.1764
 -21752277.59149 -16949819.28647  20350039.3724   20350038.8434
  -4863886.59248  -3790038.55845  23789150.6044   23789151.4514
   8138260.12549   6341500.61545  22928872.9434   22928871.7244
  -8967119.52948  -6987359.23145  23278129.7874   23278130.6344
   1003632.66947                  24974912.5444
  -8011178.74048  -6242473.04045  22792953.7584   22792955.0744
 -19367354.29649 -15091433.57547  20681792.3764   20681792.6044
 96  3 15  1 56 30.0000000  0  8G20G 5G 6G 4G 9G 7G16G24
 -18120935.45549 -14120203.50746  21671533.0704   21671533.0954
 -21776633.57449 -16968797.98047  20345404.3704   20345403.9694
  -4932007.31248  -3843119.63145  23776187.4734   23776188.5654
   8229650.28649   6412713.71645  22946263.6544   22946263.0044
  -8877926.50548  -6917858.18045  23295102.8794   23295103.3474
   1075657.20947                  24988619.0384
  -8097384.99549  -6309646.71645  22776549.6134   22776550.2504
 -19328915.77849 -15061481.48447  20689106.8144   20689107.3094
 96  3 15  1 57  0.0000000  0  7G20G 5G 6G 4G 9G16G24
 -18196324.97749 -14178948.57646  21657186.8114   21657186.8214
 -21800524.06749 -16987413.95147  20340858.3754   20340857.6494
  -5000063.29648  -3896150.22345  23763236.1294   23763237.5944
   8321192.20749   6484045.08846  22963683.9584   22963683.1614
  -8788563.93548  -6848225.04045  23312107.2004   23312107.7964
  -8183368.43749  -6376646.77145  22760187.4644   22760188.3824
 -19290054.83449 -15031200.23047  20696501.8814   20696502.2494
 96  3 15  1 57 30.0000000  0  7G20G 5G 6G 4G 9G16G24
 -18271373.28049 -14237427.76546  21642905.7164   21642905.7204
 -21823979.04949 -17005690.55947  20336394.8004   20336394.3884
  -5068087.53348  -3949156.09245  23750291.7214   23750292.8704
   8412883.01749   6555492.47046  22981131.8994   22981131.4614
  -8699054.88348  -6778477.74445  23329140.8654   23329141.1434
  -8269141.49349  -6443482.88745  22743865.0834   22743866.7324
 -19250791.48249 -15000605.40647  20703973.5454   20703973.9094
 96  3 15  1 58  0.0000000  0  7G20G 5G 6G 4G 9G16G24
 -18346078.74449 -14295639.80446  21628690.2584   21628690.4184
 -21846977.40049 -17023611.34947  20332018.4064   20332017.8414
  -5136088.07348  -4002143.46945  23737351.5194   23737354.3734
   8504741.91349   6627070.82945  22998612.8514   22998611.0274
  -8609408.18448  -6708623.18745  23346200.9254   23346200.0454
  -8354684.15349  -6510139.47146  22727587.0944   22727588.6284
 -19211146.02149 -14969712.83647  20711517.9264   20711518.1704
 96  3 15  1 58 30.0000000  0  7G20G 5G 6G 4G 9G16G24
 -18420487.47749 -14353620.61346  21614530.1984   21614530.6604
 -21869534.63049 -17041188.41447  20327726.0594   20327725.5114
  -5204102.03348  -4055141.34045  23724408.6654   23724409.8074
   8596745.69248   6698762.08145  23016119.7554   23016119.0884
  -8519654.75648  -6638685.47245  23363280.6224   23363280.0134
  -8440022.79649  -6576637.09546  22711347.6704   22711348.5124
 -19171146.01749 -14938543.99647  20719129.4064   20719129.5624
 96  3 15  1 59  0.0000000  0  7G20G 5G 6G 4G 9G16G24
 -18494605.03349 -14411374.53946  21600426.0734   21600426.6114
 -21891624.65149 -17058401.41247  20323522.2514   20323521.8134
  -5272116.96348  -4108139.96445  23711466.4184   23711467.3594
   8688900.79849   6770571.24345  23033656.8874   23033655.9694
  -8429790.36748  -6568661.28345  23380379.6134   23380381.0674
  -8525127.64949  -6642952.54046  22695152.6914   22695153.4524
 -19130775.08649 -14907086.12347  20726811.8174   20726811.7324
 96  3 15  1 59 30.0000000  0  7G20G 5G 6G 4G 9G16G24
 -18568422.70349 -14468894.79346  21586378.7434   21586378.6914
 -21913215.00349 -17075225.06047  20319413.7314   20319413.1654
  -5340103.59448  -4161116.50345  23698529.3134   23698530.1724
   8781192.63348   6842486.97245  23051218.8824   23051218.3294
  -8339813.03748  -6498549.10545  23397501.3004   23397502.3354
  -8609979.79949  -6709071.07346  22679006.3724   22679007.0814
 -19090022.32649 -14875330.71847  20734566.5344   20734566.7654
 96  3 15  2  0  0.0000000  0  7G20G 5G 6G 4G 9G16G24
 -18641940.44749 -14526181.34046  21572388.8374   21572389.2214
 -21934298.93249 -17091654.08747  20315401.5904   20315401.1404
  -5408050.08448  -4214061.80345  23685599.3714   23685599.7204
   8873598.35548   6914491.42045  23068803.1144   23068802.6344
  -8249741.90248  -6428363.83345  23414642.8004   23414644.3984
  -8694578.69649  -6774992.25746  22662907.6924   22662908.2464
 -19048893.03749 -14843281.92047  20742393.3704   20742393.5104
 96  3 15  2  0 30.0000000  0  7G20G 5G 6G 4G 9G16G24
 -18715136.00249 -14583216.82646  21558460.1994   21558460.0994
 -21954882.50949 -17107693.23847  20311484.7234   20311484.2214
  -5475935.13948  -4266959.20345  23672680.2244   23672681.2574
   8966111.94448   6986579.92845  23086408.1364   23086407.2844
  -8159577.97348  -6358106.27145  23431800.2304   23431801.4344
  -8778917.17549  -6840710.52746  22646858.6944   22646859.6494
 -19007380.14049 -14810934.20347  20750293.1004   20750293.1874
 96  3 15  2  1  0.0000000  0  7G20G 5G 6G 4G 9G16G24
 -18787989.51549 -14639985.78146  21544596.9694   21544596.8844
 -21974981.12849 -17123354.50347  20307660.3214   20307659.8264
  -5543765.11448  -4319813.67745  23659773.1264   23659772.6384
   9058733.49248   7058752.57045  23104033.3424   23104032.2024
  -8069327.17248  -6287780.99645  23448974.5624   23448974.4614
  -8862984.61149  -6906217.60146  22630860.3844   22630861.7984
 -18965504.46349 -14778303.80147  20758261.6614   20758261.8854
 96  3 15  2  1 30.0000000  0  7G20G 5G 6G 4G 9G16G24
 -18860485.14749 -14696475.87146  21530801.8294   21530801.9054
 -21994609.32049 -17138649.20447  20303925.0114   20303924.6224
  -5611550.52748  -4372633.44245  23646874.2504   23646874.8504
   9151450.13348   7130999.30545  23121676.5004   23121675.4654
  -7979005.11448  -6217400.18345  23466162.5044   23466162.7744
  -8946797.84349  -6971526.58246  22614911.4034   22614912.8454
 -18923274.49649 -14745397.33047  20766297.8134   20766298.0094
 96  3 15  2  2  0.0000000  0  7G20G 5G 6G 4G 9G16G24
 -18932620.78249 -14752685.45646  21517074.6384   21517074.5174
 -22013760.36349 -17153572.09547  20300280.8664   20300280.2684
  -5679319.33448  -4425440.26345  23633978.2254   23633978.4114
   9244272.03148   7203328.06745  23139340.0734   23139338.6954
  -7888608.21448  -6146961.04745  23483364.4024   23483365.2914
  -9030360.99548  -7036640.69545  22599009.8264   22599010.8794
 -18880684.92049 -14712210.64347  20774402.2914   20774402.2754
 96  3 15  2  2 30.0000000  0  7G20G 5G 6G 4G 9G16G24
 -19004399.67349 -14808617.05546  21503415.1764   21503415.6434
 -22032434.23949 -17168123.16247  20296727.4104   20296726.8254
  -5747089.95348  -4478248.51145  23621081.4234   23621081.5324
   9337204.64348   7275743.10345  23157024.8344   23157023.0354
  -7798115.60248  -6076447.36945  23500583.3184   23500584.4314
  -9113686.32849  -7101569.49546  22583153.6274   22583154.3404
 -18837731.74549 -14678740.63347  20782575.9654   20782576.0694
 96  3 15  2  3  0.0000000  0  7G20G 5G 6G 4G 9G16G24
 -19075817.89949 -14864267.60846  21489824.7164   21489824.9354
 -22050613.00049 -17182288.42447  20293267.9104   20293267.2714
  -5814856.97048  -4531053.93345  23608186.3514   23608185.6994
   9430249.59748   7348245.63945  23174730.7424   23174730.4094
  -7707514.75748  -6005849.34045  23517825.0254   23517826.3844
  -9196777.53548  -7166315.87045  22567341.4654   22567342.5724
 -18794403.72049 -14644978.53747  20790820.9474   20790821.1834
 96  3 15  2  3 30.0000000  0  7G20G 5G 6G 4G 9G16G24
 -19146852.44649 -14919619.19946  21476307.5054   21476307.1084
 -22068264.94049 -17196043.17547  20289908.7284   20289908.2584
  -5882596.07248  -4583837.61145  23595295.9944   23595296.6074
   9523414.80348   7420841.92245  23192459.6044   23192458.1794
  -7616785.65448  -5935151.35745  23535090.0104   23535090.1254
  -9279624.58548  -7230871.98345  22551576.4034   22551577.2214
 -18750679.41949 -14610907.65447  20799141.6474   20799141.6684
 96  3 15  2  4  0.0000000  0  7G20G 6G 5G 4G 9G16G24
 -19217514.60149 -14974680.61046  21462860.8044   21462860.8814
  -5950306.73548  -4636599.15445  23582411.1224   23582410.7394
 -22085402.86049 -17209397.39547  20286647.5474   20286647.1104
   9616705.44748   7493535.93745  23210212.3124   23210210.7674
  -7525934.70048  -5864358.43545  23552378.5514   23552379.1884
  -9362222.01748  -7295233.59246  22535858.6604   22535859.2784
 -18706576.47049 -14576541.71547  20807534.0214   20807534.3224
